Wetterdaten: Montag, 28.06.2010
Datum Zeit Temp. Innen Temp. Aussen UV X Diff Temp. Feuchte Inne Feuchte Auss Sonnenschein Luftdruck Regen ab 0,1 Wind Sonnenschein Windben
28.06.2010 00:00 25,5 C 20,5 C 0,1 UV-I 0,0 C 50 % 66 % 0 % 1020,9 hPa 0,0 l/m 0,0 km/h (0 Bft) 0 min 0,0 km/h (0 Bft)
28.06.2010 00:02 25,5 C 20,5 C 0,1 UV-I 0,0 C 50 % 67 % 0 % 1020,9 hPa 0,0 l/m 0,0 km/h (0 Bft) 0 min 0,0 km/h (0 Bft)
28.06.2010 00:04 25,5 C 20,5 C 0,1 UV-I 0,0 C 50 % 67 % 0 % 1020,9 hPa 0,0 l/m 0,0 km/h (0 Bft) 0 min 0,0 km/h (0 Bft)
28.06.2010 00:06 25,5 C 20,4 C 0,1 UV-I 0,0 C 50 % 67 % 0 % 1020,9 hPa 0,0 l/m 0,0 km/h (0 Bft) 0 min 0,0 km/h (0 Bft)
28.06.2010 00:08 25,5 C 20,4 C 0,1 UV-I 0,0 C 50 % 67 % 0 % 1020,9 hPa 0,0 l/m 0,0 km/h (0 Bft) 0 min 0,0 km/h (0 Bft)
28.06.2010 00:10 25,5 C 20,4 C 0,1 UV-I 0,0 C 50 % 67 % 0 % 1020,9 hPa 0,0 l/m 0,0 km/h (0 Bft) 0 min 0,0 km/h (0 Bft)
28.06.2010 00:12 25,4 C 20,2 C 0,1 UV-I 0,0 C 50 % 68 % 0 % 1021,1 hPa 0,0 l/m 0,0 km/h (0 Bft) 0 min 0,0 km/h (0 Bft)
28.06.2010 00:14 25,4 C 20,3 C 0,1 UV-I 0,0 C 50 % 68 % 0 % 1021,1 hPa 0,0 l/m 0,0 km/h (0 Bft) 0 min 0,0 km/h (0 Bft)
28.06.2010 00:16 25,4 C 20,1 C 0,1 UV-I 0,0 C 50 % 68 % 0 % 1021,1 hPa 0,0 l/m 0,0 km/h (0 Bft) 0 min 0,0 km/h (0 Bft)
28.06.2010 00:20 25,4 C 20,0 C 0,1 UV-I 0,0 C 50 % 68 % 0 % 1021,1 hPa 0,0 l/m 0,0 km/h (0 Bft) 0 min 0,0 km/h (0 Bft)
28.06.2010 00:22 25,4 C 20,0 C 0,1 UV-I 0,0 C 50 % 68 % 0 % 1021,1 hPa 0,0 l/m 0,0 km/h (0 Bft) 0 min 0,0 km/h (0 Bft)
28.06.2010 00:24 25,4 C 19,9 C 0,1 UV-I 0,0 C 50 % 68 % 0 % 1021,1 hPa 0,0 l/m 0,0 km/h (0 Bft) 0 min 0,0 km/h (0 Bft)
28.06.2010 00:26 25,4 C 19,9 C 0,1 UV-I 0,0 C 50 % 68 % 0 % 1021,1 hPa 0,0 l/m 0,0 km/h (0 Bft) 0 min 0,0 km/h (0 Bft)
28.06.2010 00:30 25,4 C 19,9 C 0,1 UV-I 0,0 C 50 % 69 % 0 % 1021,1 hPa 0,0 l/m 0,0 km/h (0 Bft) 0 min 0,0 km/h (0 Bft)
28.06.2010 00:32 25,2 C 19,7 C 0,1 UV-I 0,0 C 50 % 69 % 0 % 1021,0 hPa 0,0 l/m 0,0 km/h (0 Bft) 0 min 0,0 km/h (0 Bft)
28.06.2010 00:34 25,2 C 19,7 C 0,1 UV-I 0,0 C 50 % 69 % 0 % 1021,0 hPa 0,0 l/m 0,0 km/h (0 Bft) 0 min 0,0 km/h (0 Bft)
28.06.2010 00:36 25,2 C 19,7 C 0,1 UV-I 0,0 C 50 % 70 % 0 % 1021,0 hPa 0,0 l/m 0,0 km/h (0 Bft) 0 min 0,0 km/h (0 Bft)
28.06.2010 00:38 25,2 C 19,6 C 0,1 UV-I 0,0 C 50 % 71 % 0 % 1021,0 hPa 0,0 l/m 0,0 km/h (0 Bft) 0 min 3,2 km/h (1 Bft)
28.06.2010 00:40 25,3 C 19,6 C 0,1 UV-I 0,0 C 50 % 72 % 0 % 1021,0 hPa 0,0 l/m 0,0 km/h (0 Bft) 0 min 0,0 km/h (0 Bft)
28.06.2010 00:42 25,3 C 19,5 C 0,1 UV-I 0,0 C 50 % 73 % 0 % 1021,0 hPa 0,0 l/m 0,0 km/h (0 Bft) 0 min 0,0 km/h (0 Bft)
28.06.2010 00:44 25,3 C 19,5 C 0,1 UV-I 0,0 C 50 % 73 % 0 % 1021,0 hPa 0,0 l/m 0,0 km/h (0 Bft) 0 min 0,0 km/h (0 Bft)
28.06.2010 00:46 25,3 C 19,5 C 0,1 UV-I 0,0 C 51 % 73 % 0 % 1021,0 hPa 0,0 l/m 0,0 km/h (0 Bft) 0 min 0,0 km/h (0 Bft)
28.06.2010 00:50 25,3 C 19,5 C 0,1 UV-I 0,0 C 51 % 73 % 0 % 1021,0 hPa 0,0 l/m 0,0 km/h (0 Bft) 0 min 0,0 km/h (0 Bft)
28.06.2010 00:52 25,2 C 19,3 C 0,1 UV-I 0,0 C 51 % 74 % 0 % 1020,9 hPa 0,0 l/m 0,0 km/h (0 Bft) 0 min 0,0 km/h (0 Bft)
28.06.2010 00:54 25,2 C 19,2 C 0,1 UV-I 0,0 C 51 % 74 % 0 % 1020,9 hPa 0,0 l/m 0,0 km/h (0 Bft) 0 min 0,0 km/h (0 Bft)
28.06.2010 00:56 25,2 C 19,2 C 0,1 UV-I 0,0 C 51 % 74 % 0 % 1020,9 hPa 0,0 l/m 0,0 km/h (0 Bft) 0 min 0,0 km/h (0 Bft)
28.06.2010 00:58 25,2 C 19,2 C 0,1 UV-I 0,0 C 51 % 75 % 0 % 1020,9 hPa 0,0 l/m 0,0 km/h (0 Bft) 0 min 0,0 km/h (0 Bft)
28.06.2010 01:00 25,2 C 19,2 C 0,1 UV-I 0,0 C 51 % 75 % 0 % 1020,9 hPa 0,0 l/m 0,0 km/h (0 Bft) 0 min 0,0 km/h (0 Bft)
28.06.2010 01:02 25,2 C 19,2 C 0,1 UV-I 0,0 C 51 % 75 % 0 % 1020,9 hPa 0,0 l/m 0,0 km/h (0 Bft) 0 min 0,0 km/h (0 Bft)
28.06.2010 01:04 25,2 C 19,1 C 0,1 UV-I 0,0 C 51 % 76 % 0 % 1020,9 hPa 0,0 l/m 0,0 km/h (0 Bft) 0 min 0,0 km/h (0 Bft)
28.06.2010 01:06 25,2 C 19,1 C 0,1 UV-I 0,0 C 51 % 76 % 0 % 1020,9 hPa 0,0 l/m 0,0 km/h (0 Bft) 0 min 0,0 km/h (0 Bft)
28.06.2010 01:08 25,2 C 19,0 C 0,1 UV-I 0,0 C 51 % 76 % 0 % 1020,9 hPa 0,0 l/m 0,0 km/h (0 Bft) 0 min 0,0 km/h (0 Bft)
28.06.2010 01:10 25,2 C 19,0 C 0,1 UV-I 0,0 C 51 % 76 % 0 % 1020,9 hPa 0,0 l/m 0,0 km/h (0 Bft) 0 min 0,0 km/h (0 Bft)
28.06.2010 01:12 25,2 C 19,1 C 0,1 UV-I 0,0 C 51 % 77 % 0 % 1021,1 hPa 0,0 l/m 0,0 km/h (0 Bft) 0 min 0,0 km/h (0 Bft)
28.06.2010 01:14 25,2 C 19,1 C 0,1 UV-I 0,0 C 51 % 77 % 0 % 1021,1 hPa 0,0 l/m 0,0 km/h (0 Bft) 0 min 0,0 km/h (0 Bft)
28.06.2010 01:16 25,2 C 18,9 C 0,1 UV-I 0,0 C 51 % 77 % 0 % 1021,1 hPa 0,0 l/m 0,0 km/h (0 Bft) 0 min 0,0 km/h (0 Bft)
28.06.2010 01:20 25,1 C 18,8 C 0,1 UV-I 0,0 C 51 % 77 % 0 % 1021,1 hPa 0,0 l/m 0,0 km/h (0 Bft) 0 min 0,0 km/h (0 Bft)
28.06.2010 01:22 25,1 C 18,8 C 0,1 UV-I 0,0 C 51 % 77 % 0 % 1021,1 hPa 0,0 l/m 0,0 km/h (0 Bft) 0 min 0,0 km/h (0 Bft)
28.06.2010 01:24 25,1 C 18,9 C 0,1 UV-I 0,0 C 51 % 78 % 0 % 1021,1 hPa 0,0 l/m 0,0 km/h (0 Bft) 0 min 0,0 km/h (0 Bft)
28.06.2010 01:26 25,1 C 18,8 C 0,1 UV-I 0,0 C 51 % 78 % 0 % 1021,1 hPa 0,0 l/m 0,0 km/h (0 Bft) 0 min 0,0 km/h (0 Bft)
28.06.2010 01:28 25,1 C 18,7 C 0,1 UV-I 0,0 C 51 % 77 % 0 % 1021,1 hPa 0,0 l/m 0,0 km/h (0 Bft) 0 min 0,0 km/h (0 Bft)
28.06.2010 01:30 25,1 C 18,7 C 0,1 UV-I 0,0 C 51 % 77 % 0 % 1021,1 hPa 0,0 l/m 0,0 km/h (0 Bft) 0 min 0,0 km/h (0 Bft)
28.06.2010 01:32 25,1 C 18,7 C 0,1 UV-I 0,0 C 52 % 78 % 0 % 1021,2 hPa 0,0 l/m 0,0 km/h (0 Bft) 0 min 0,0 km/h (0 Bft)
28.06.2010 01:34 25,1 C 18,6 C 0,1 UV-I 0,0 C 52 % 78 % 0 % 1021,2 hPa 0,0 l/m 0,0 km/h (0 Bft) 0 min 0,0 km/h (0 Bft)
28.06.2010 01:36 25,1 C 18,6 C 0,1 UV-I 0,0 C 52 % 78 % 0 % 1021,2 hPa 0,0 l/m 0,0 km/h (0 Bft) 0 min 0,0 km/h (0 Bft)
28.06.2010 01:38 25,0 C 18,7 C 0,1 UV-I 0,0 C 52 % 78 % 0 % 1021,2 hPa 0,0 l/m 0,0 km/h (0 Bft) 0 min 0,0 km/h (0 Bft)
28.06.2010 01:42 25,0 C 18,6 C 0,1 UV-I 0,0 C 52 % 78 % 0 % 1021,2 hPa 0,0 l/m 0,0 km/h (0 Bft) 0 min 0,0 km/h (0 Bft)
28.06.2010 01:46 25,0 C 18,5 C 0,1 UV-I 0,0 C 52 % 78 % 0 % 1021,2 hPa 0,0 l/m 0,0 km/h (0 Bft) 0 min 0,0 km/h (0 Bft)
28.06.2010 01:48 25,0 C 18,5 C 0,1 UV-I 0,0 C 52 % 79 % 0 % 1021,2 hPa 0,0 l/m 0,0 km/h (0 Bft) 0 min 0,0 km/h (0 Bft)
28.06.2010 01:50 25,0 C 18,5 C 0,1 UV-I 0,0 C 52 % 79 % 0 % 1021,2 hPa 0,0 l/m 0,0 km/h (0 Bft) 0 min 0,0 km/h (0 Bft)
28.06.2010 01:54 25,0 C 18,4 C 0,1 UV-I 0,0 C 52 % 79 % 0 % 1021,4 hPa 0,0 l/m 0,0 km/h (0 Bft) 0 min 0,0 km/h (0 Bft)
28.06.2010 01:56 25,0 C 18,4 C 0,1 UV-I 0,0 C 52 % 79 % 0 % 1021,4 hPa 0,0 l/m 0,0 km/h (0 Bft) 0 min 0,0 km/h (0 Bft)
28.06.2010 01:58 25,0 C 18,3 C 0,1 UV-I 0,0 C 52 % 79 % 0 % 1021,4 hPa 0,0 l/m 0,0 km/h (0 Bft) 0 min 0,0 km/h (0 Bft)
28.06.2010 02:00 25,0 C 18,3 C 0,1 UV-I 0,0 C 52 % 79 % 0 % 1021,4 hPa 0,0 l/m 0,0 km/h (0 Bft) 0 min 0,0 km/h (0 Bft)
28.06.2010 02:02 25,0 C 18,3 C 0,1 UV-I 0,0 C 52 % 79 % 0 % 1021,4 hPa 0,0 l/m 0,0 km/h (0 Bft) 0 min 0,0 km/h (0 Bft)
28.06.2010 02:04 25,0 C 18,2 C 0,1 UV-I 0,0 C 52 % 79 % 0 % 1021,4 hPa 0,0 l/m 0,0 km/h (0 Bft) 0 min 0,0 km/h (0 Bft)
28.06.2010 02:06 24,9 C 18,1 C 0,1 UV-I 0,0 C 52 % 78 % 0 % 1021,4 hPa 0,0 l/m 0,0 km/h (0 Bft) 0 min 0,0 km/h (0 Bft)
28.06.2010 02:08 24,9 C 18,1 C 0,1 UV-I 0,0 C 52 % 78 % 0 % 1021,4 hPa 0,0 l/m 0,0 km/h (0 Bft) 0 min 0,0 km/h (0 Bft)
28.06.2010 02:10 24,9 C 18,1 C 0,1 UV-I 0,0 C 52 % 78 % 0 % 1021,4 hPa 0,0 l/m 0,0 km/h (0 Bft) 0 min 0,0 km/h (0 Bft)
28.06.2010 02:14 24,9 C 18,0 C 0,1 UV-I 0,0 C 52 % 79 % 0 % 1021,1 hPa 0,0 l/m 0,0 km/h (0 Bft) 0 min 0,0 km/h (0 Bft)
28.06.2010 02:16 24,9 C 18,0 C 0,1 UV-I 0,0 C 52 % 79 % 0 % 1021,1 hPa 0,0 l/m 0,0 km/h (0 Bft) 0 min 0,0 km/h (0 Bft)
28.06.2010 02:18 24,9 C 17,9 C 0,1 UV-I 0,0 C 52 % 79 % 0 % 1021,1 hPa 0,0 l/m 0,0 km/h (0 Bft) 0 min 0,0 km/h (0 Bft)
28.06.2010 02:22 24,9 C 17,8 C 0,1 UV-I 0,0 C 52 % 79 % 0 % 1021,1 hPa 0,0 l/m 0,0 km/h (0 Bft) 0 min 0,0 km/h (0 Bft)
28.06.2010 02:28 24,9 C 17,8 C 0,1 UV-I 0,0 C 52 % 79 % 0 % 1021,1 hPa 0,0 l/m 0,0 km/h (0 Bft) 0 min 0,0 km/h (0 Bft)
28.06.2010 02:30 24,9 C 17,8 C 0,1 UV-I 0,0 C 52 % 79 % 0 % 1021,1 hPa 0,0 l/m 0,0 km/h (0 Bft) 0 min 0,0 km/h (0 Bft)
28.06.2010 02:32 24,8 C 17,7 C 0,1 UV-I 0,0 C 52 % 79 % 0 % 1021,1 hPa 0,0 l/m 0,0 km/h (0 Bft) 0 min 0,0 km/h (0 Bft)
28.06.2010 02:36 24,8 C 17,7 C 0,1 UV-I 0,0 C 52 % 78 % 0 % 1021,1 hPa 0,0 l/m 0,0 km/h (0 Bft) 0 min 0,0 km/h (0 Bft)
28.06.2010 02:38 24,8 C 17,6 C 0,1 UV-I 0,0 C 53 % 78 % 0 % 1021,1 hPa 0,0 l/m 0,0 km/h (0 Bft) 0 min 0,0 km/h (0 Bft)
28.06.2010 02:40 24,8 C 17,6 C 0,1 UV-I 0,0 C 53 % 78 % 0 % 1021,1 hPa 0,0 l/m 0,0 km/h (0 Bft) 0 min 0,0 km/h (0 Bft)
28.06.2010 02:42 24,8 C 17,5 C 0,1 UV-I 0,0 C 53 % 78 % 0 % 1021,1 hPa 0,0 l/m 0,0 km/h (0 Bft) 0 min 0,0 km/h (0 Bft)
28.06.2010 02:46 24,8 C 17,5 C 0,1 UV-I 0,0 C 52 % 78 % 0 % 1021,1 hPa 0,0 l/m 0,0 km/h (0 Bft) 0 min 0,0 km/h (0 Bft)
28.06.2010 02:48 24,8 C 17,5 C 0,1 UV-I 0,0 C 53 % 78 % 0 % 1021,1 hPa 0,0 l/m 0,0 km/h (0 Bft) 0 min 0,0 km/h (0 Bft)
28.06.2010 02:50 24,8 C 17,5 C 0,1 UV-I 0,0 C 53 % 78 % 0 % 1021,1 hPa 0,0 l/m 0,0 km/h (0 Bft) 0 min 0,0 km/h (0 Bft)
28.06.2010 02:52 24,8 C 17,5 C 0,1 UV-I 0,0 C 53 % 78 % 0 % 1020,9 hPa 0,0 l/m 0,0 km/h (0 Bft) 0 min 0,0 km/h (0 Bft)
28.06.2010 02:54 24,8 C 17,4 C 0,1 UV-I 0,0 C 52 % 78 % 0 % 1020,9 hPa 0,0 l/m 0,0 km/h (0 Bft) 0 min 0,0 km/h (0 Bft)
28.06.2010 02:56 24,8 C 17,3 C 0,1 UV-I 0,0 C 53 % 78 % 0 % 1020,9 hPa 0,0 l/m 0,0 km/h (0 Bft) 0 min 0,0 km/h (0 Bft)
28.06.2010 02:58 24,8 C 17,3 C 0,1 UV-I 0,0 C 53 % 78 % 0 % 1020,9 hPa 0,0 l/m 0,0 km/h (0 Bft) 0 min 0,0 km/h (0 Bft)
28.06.2010 03:02 24,8 C 17,2 C 0,1 UV-I 0,0 C 52 % 78 % 0 % 1020,9 hPa 0,0 l/m 0,0 km/h (0 Bft) 0 min 0,0 km/h (0 Bft)
28.06.2010 03:04 24,7 C 17,2 C 0,1 UV-I 0,0 C 53 % 78 % 0 % 1020,9 hPa 0,0 l/m 0,0 km/h (0 Bft) 0 min 0,0 km/h (0 Bft)
28.06.2010 03:10 24,7 C 17,2 C 0,1 UV-I 0,0 C 53 % 78 % 0 % 1020,9 hPa 0,0 l/m 0,0 km/h (0 Bft) 0 min 0,0 km/h (0 Bft)
28.06.2010 03:12 24,7 C 17,1 C 0,1 UV-I 0,0 C 53 % 78 % 0 % 1020,9 hPa 0,0 l/m 0,0 km/h (0 Bft) 0 min 0,0 km/h (0 Bft)
28.06.2010 03:16 24,7 C 17,0 C 0,1 UV-I 0,0 C 53 % 78 % 0 % 1020,9 hPa 0,0 l/m 0,0 km/h (0 Bft) 0 min 0,0 km/h (0 Bft)
28.06.2010 03:18 24,7 C 17,1 C 0,1 UV-I 0,0 C 53 % 78 % 0 % 1020,9 hPa 0,0 l/m 0,0 km/h (0 Bft) 0 min 0,0 km/h (0 Bft)
28.06.2010 03:20 24,7 C 17,1 C 0,1 UV-I 0,0 C 53 % 78 % 0 % 1020,9 hPa 0,0 l/m 0,0 km/h (0 Bft) 0 min 0,0 km/h (0 Bft)
28.06.2010 03:26 24,6 C 16,9 C 0,1 UV-I 0,0 C 53 % 78 % 0 % 1020,9 hPa 0,0 l/m 0,0 km/h (0 Bft) 0 min 0,0 km/h (0 Bft)
28.06.2010 03:30 24,6 C 16,9 C 0,1 UV-I 0,0 C 53 % 78 % 0 % 1020,9 hPa 0,0 l/m 0,0 km/h (0 Bft) 0 min 0,0 km/h (0 Bft)
28.06.2010 03:34 24,6 C 16,9 C 0,1 UV-I 0,0 C 53 % 79 % 0 % 1020,9 hPa 0,0 l/m 0,0 km/h (0 Bft) 0 min 0,0 km/h (0 Bft)
28.06.2010 03:36 24,6 C 16,8 C 0,1 UV-I 0,0 C 53 % 79 % 0 % 1020,9 hPa 0,0 l/m 0,0 km/h (0 Bft) 0 min 0,0 km/h (0 Bft)
28.06.2010 03:38 24,6 C 16,7 C 0,1 UV-I 0,0 C 53 % 79 % 0 % 1020,9 hPa 0,0 l/m 0,0 km/h (0 Bft) 0 min 0,0 km/h (0 Bft)
28.06.2010 03:40 24,6 C 16,7 C 0,1 UV-I 0,0 C 53 % 79 % 0 % 1020,9 hPa 0,0 l/m 0,0 km/h (0 Bft) 0 min 0,0 km/h (0 Bft)
28.06.2010 03:42 24,6 C 16,7 C 0,1 UV-I 0,0 C 53 % 80 % 0 % 1020,9 hPa 0,0 l/m 0,0 km/h (0 Bft) 0 min 0,0 km/h (0 Bft)
28.06.2010 03:50 24,6 C 16,7 C 0,1 UV-I 0,0 C 53 % 80 % 0 % 1020,9 hPa 0,0 l/m 0,0 km/h (0 Bft) 0 min 0,0 km/h (0 Bft)
28.06.2010 03:52 24,6 C 16,5 C 0,1 UV-I 0,0 C 53 % 81 % 0 % 1020,7 hPa 0,0 l/m 0,0 km/h (0 Bft) 0 min 0,0 km/h (0 Bft)
28.06.2010 03:54 24,6 C 16,5 C 0,1 UV-I 0,0 C 53 % 81 % 0 % 1020,7 hPa 0,0 l/m 0,0 km/h (0 Bft) 0 min 0,0 km/h (0 Bft)
28.06.2010 03:56 24,6 C 16,5 C 0,1 UV-I 0,0 C 53 % 81 % 0 % 1020,7 hPa 0,0 l/m 0,0 km/h (0 Bft) 0 min 0,0 km/h (0 Bft)
28.06.2010 03:58 24,6 C 16,5 C 0,1 UV-I 0,0 C 53 % 82 % 0 % 1020,7 hPa 0,0 l/m 0,0 km/h (0 Bft) 0 min 0,0 km/h (0 Bft)
28.06.2010 04:00 24,5 C 16,4 C 0,1 UV-I 0,0 C 53 % 82 % 0 % 1020,7 hPa 0,0 l/m 0,0 km/h (0 Bft) 0 min 0,0 km/h (0 Bft)
28.06.2010 04:02 24,5 C 16,4 C 0,1 UV-I 0,0 C 53 % 82 % 0 % 1020,7 hPa 0,0 l/m 0,0 km/h (0 Bft) 0 min 0,0 km/h (0 Bft)
28.06.2010 04:04 24,5 C 16,5 C 0,1 UV-I 0,0 C 53 % 82 % 0 % 1020,7 hPa 0,0 l/m 0,0 km/h (0 Bft) 0 min 0,0 km/h (0 Bft)
28.06.2010 04:06 24,5 C 16,4 C 0,1 UV-I 0,0 C 53 % 83 % 0 % 1020,7 hPa 0,0 l/m 0,0 km/h (0 Bft) 0 min 0,0 km/h (0 Bft)
28.06.2010 04:08 24,5 C 16,4 C 0,1 UV-I 0,0 C 53 % 83 % 0 % 1020,7 hPa 0,0 l/m 0,0 km/h (0 Bft) 0 min 0,0 km/h (0 Bft)
28.06.2010 04:13 24,5 C 16,3 C 0,1 UV-I 0,0 C 53 % 83 % 0 % 1020,5 hPa 0,0 l/m 0,0 km/h (0 Bft) 0 min 0,0 km/h (0 Bft)
28.06.2010 04:18 24,5 C 16,3 C 0,1 UV-I 0,0 C 53 % 83 % 0 % 1020,5 hPa 0,0 l/m 0,0 km/h (0 Bft) 0 min 0,0 km/h (0 Bft)
28.06.2010 04:19 24,5 C 16,3 C 0,1 UV-I 0,0 C 53 % 83 % 0 % 1020,5 hPa 0,0 l/m 0,0 km/h (0 Bft) 0 min 0,0 km/h (0 Bft)
28.06.2010 04:22 24,5 C 16,2 C 0,1 UV-I 0,0 C 53 % 83 % 0 % 1020,5 hPa 0,0 l/m 0,0 km/h (0 Bft) 0 min 0,0 km/h (0 Bft)
28.06.2010 04:24 24,4 C 16,1 C 0,1 UV-I 0,0 C 53 % 84 % 0 % 1020,5 hPa 0,0 l/m 0,0 km/h (0 Bft) 0 min 0,0 km/h (0 Bft)
28.06.2010 04:26 24,4 C 16,1 C 0,1 UV-I 0,0 C 53 % 84 % 0 % 1020,5 hPa 0,0 l/m 0,0 km/h (0 Bft) 0 min 0,0 km/h (0 Bft)
28.06.2010 04:28 24,4 C 16,1 C 0,1 UV-I 0,0 C 53 % 84 % 0 % 1020,5 hPa 0,0 l/m 0,0 km/h (0 Bft) 0 min 0,0 km/h (0 Bft)
28.06.2010 04:30 24,4 C 16,1 C 0,1 UV-I 0,0 C 53 % 84 % 0 % 1020,5 hPa 0,0 l/m 0,0 km/h (0 Bft) 0 min 0,0 km/h (0 Bft)
28.06.2010 04:32 24,4 C 16,1 C 0,1 UV-I 0,0 C 53 % 85 % 0 % 1020,7 hPa 0,0 l/m 0,0 km/h (0 Bft) 0 min 0,0 km/h (0 Bft)
28.06.2010 04:34 24,4 C 16,1 C 0,1 UV-I 0,0 C 53 % 85 % 0 % 1020,7 hPa 0,0 l/m 0,0 km/h (0 Bft) 0 min 0,0 km/h (0 Bft)
28.06.2010 04:36 24,4 C 16,0 C 0,1 UV-I 0,0 C 53 % 85 % 0 % 1020,7 hPa 0,0 l/m 0,0 km/h (0 Bft) 0 min 0,0 km/h (0 Bft)
28.06.2010 04:38 24,4 C 16,0 C 0,1 UV-I 0,0 C 53 % 85 % 0 % 1020,7 hPa 0,0 l/m 0,0 km/h (0 Bft) 0 min 0,0 km/h (0 Bft)
28.06.2010 04:40 24,4 C 16,0 C 0,1 UV-I 0,0 C 53 % 85 % 0 % 1020,7 hPa 0,0 l/m 0,0 km/h (0 Bft) 0 min 0,0 km/h (0 Bft)
28.06.2010 04:42 24,4 C 16,0 C 0,1 UV-I 0,0 C 53 % 85 % 0 % 1020,7 hPa 0,0 l/m 0,0 km/h (0 Bft) 0 min 0,0 km/h (0 Bft)
28.06.2010 04:44 24,4 C 16,0 C 0,1 UV-I 0,0 C 53 % 85 % 0 % 1020,7 hPa 0,0 l/m 0,0 km/h (0 Bft) 0 min 0,0 km/h (0 Bft)
28.06.2010 04:46 24,4 C 16,1 C 0,1 UV-I 0,0 C 53 % 85 % 0 % 1020,7 hPa 0,0 l/m 0,0 km/h (0 Bft) 0 min 0,0 km/h (0 Bft)
28.06.2010 04:50 24,4 C 16,0 C 0,1 UV-I 0,0 C 53 % 85 % 0 % 1020,7 hPa 0,0 l/m 0,0 km/h (0 Bft) 0 min 0,0 km/h (0 Bft)
28.06.2010 04:52 24,4 C 16,1 C 0,1 UV-I 0,0 C 53 % 85 % 0 % 1020,6 hPa 0,0 l/m 0,0 km/h (0 Bft) 0 min 0,0 km/h (0 Bft)
28.06.2010 04:54 24,4 C 16,1 C 0,1 UV-I 0,0 C 53 % 85 % 0 % 1020,6 hPa 0,0 l/m 0,0 km/h (0 Bft) 0 min 0,0 km/h (0 Bft)
28.06.2010 04:56 24,4 C 16,0 C 0,1 UV-I 0,0 C 53 % 85 % 0 % 1020,6 hPa 0,0 l/m 0,0 km/h (0 Bft) 0 min 0,0 km/h (0 Bft)
28.06.2010 04:58 24,4 C 15,9 C 0,1 UV-I 0,0 C 54 % 85 % 0 % 1020,6 hPa 0,0 l/m 0,0 km/h (0 Bft) 0 min 0,0 km/h (0 Bft)
28.06.2010 05:00 24,4 C 15,9 C 0,1 UV-I 0,0 C 54 % 85 % 0 % 1020,6 hPa 0,0 l/m 0,0 km/h (0 Bft) 0 min 0,0 km/h (0 Bft)
28.06.2010 05:02 24,4 C 15,9 C 0,1 UV-I 0,0 C 54 % 85 % 0 % 1020,6 hPa 0,0 l/m 0,0 km/h (0 Bft) 0 min 0,0 km/h (0 Bft)
28.06.2010 05:06 24,2 C 15,8 C 0,1 UV-I 0,0 C 54 % 85 % 0 % 1020,6 hPa 0,0 l/m 0,0 km/h (0 Bft) 0 min 0,0 km/h (0 Bft)
28.06.2010 05:08 24,2 C 15,9 C 0,1 UV-I 0,0 C 54 % 85 % 0 % 1020,6 hPa 0,0 l/m 0,0 km/h (0 Bft) 0 min 0,0 km/h (0 Bft)
28.06.2010 05:10 24,2 C 15,9 C 0,1 UV-I 0,0 C 54 % 85 % 0 % 1020,6 hPa 0,0 l/m 0,0 km/h (0 Bft) 0 min 0,0 km/h (0 Bft)
28.06.2010 05:12 24,2 C 15,8 C 0,1 UV-I 0,0 C 54 % 85 % 0 % 1020,9 hPa 0,0 l/m 0,0 km/h (0 Bft) 0 min 0,0 km/h (0 Bft)
28.06.2010 05:14 24,2 C 15,7 C 0,1 UV-I 0,0 C 54 % 85 % 0 % 1020,9 hPa 0,0 l/m 0,0 km/h (0 Bft) 0 min 0,0 km/h (0 Bft)
28.06.2010 05:16 24,2 C 15,7 C 0,1 UV-I 0,0 C 54 % 85 % 0 % 1020,9 hPa 0,0 l/m 0,0 km/h (0 Bft) 0 min 0,0 km/h (0 Bft)
28.06.2010 05:18 24,2 C 15,7 C 0,1 UV-I 0,0 C 54 % 86 % 0 % 1020,9 hPa 0,0 l/m 0,0 km/h (0 Bft) 0 min 0,0 km/h (0 Bft)
28.06.2010 05:20 24,3 C 15,7 C 0,1 UV-I 0,0 C 54 % 86 % 0 % 1020,9 hPa 0,0 l/m 0,0 km/h (0 Bft) 0 min 0,0 km/h (0 Bft)
28.06.2010 05:22 24,3 C 15,7 C 0,2 UV-I 0,0 C 54 % 86 % 0 % 1020,9 hPa 0,0 l/m 0,0 km/h (0 Bft) 0 min 0,0 km/h (0 Bft)
28.06.2010 05:26 24,3 C 15,6 C 0,2 UV-I 0,0 C 54 % 86 % 0 % 1020,9 hPa 0,0 l/m 0,0 km/h (0 Bft) 0 min 0,0 km/h (0 Bft)
28.06.2010 05:28 24,3 C 15,6 C 0,2 UV-I 0,0 C 54 % 86 % 0 % 1020,9 hPa 0,0 l/m 0,0 km/h (0 Bft) 0 min 0,0 km/h (0 Bft)
28.06.2010 05:30 24,3 C 15,6 C 0,2 UV-I 0,0 C 54 % 86 % 0 % 1020,9 hPa 0,0 l/m 0,0 km/h (0 Bft) 0 min 0,0 km/h (0 Bft)
28.06.2010 05:32 24,3 C 15,6 C 0,2 UV-I 0,0 C 54 % 86 % 0 % 1021,1 hPa 0,0 l/m 0,0 km/h (0 Bft) 0 min 0,0 km/h (0 Bft)
28.06.2010 05:34 24,2 C 15,6 C 0,2 UV-I 0,0 C 54 % 86 % 0 % 1021,1 hPa 0,0 l/m 0,0 km/h (0 Bft) 0 min 0,0 km/h (0 Bft)
28.06.2010 05:36 24,2 C 15,5 C 0,2 UV-I 0,0 C 54 % 86 % 0 % 1021,1 hPa 0,0 l/m 0,0 km/h (0 Bft) 0 min 0,0 km/h (0 Bft)
28.06.2010 05:38 24,2 C 15,6 C 0,2 UV-I 0,0 C 54 % 86 % 0 % 1021,1 hPa 0,0 l/m 0,0 km/h (0 Bft) 0 min 0,0 km/h (0 Bft)
28.06.2010 05:40 24,2 C 15,5 C 0,2 UV-I 0,0 C 54 % 86 % 0 % 1021,1 hPa 0,0 l/m 0,0 km/h (0 Bft) 0 min 0,0 km/h (0 Bft)
28.06.2010 05:42 24,2 C 15,5 C 0,3 UV-I 0,0 C 54 % 86 % 0 % 1021,1 hPa 0,0 l/m 0,0 km/h (0 Bft) 0 min 0,0 km/h (0 Bft)
28.06.2010 05:44 24,2 C 15,5 C 0,3 UV-I 0,0 C 54 % 86 % 0 % 1021,1 hPa 0,0 l/m 0,0 km/h (0 Bft) 0 min 0,0 km/h (0 Bft)
28.06.2010 05:50 24,2 C 15,5 C 0,3 UV-I 0,0 C 54 % 86 % 0 % 1021,1 hPa 0,0 l/m 0,0 km/h (0 Bft) 0 min 0,0 km/h (0 Bft)
28.06.2010 05:52 24,2 C 15,4 C 0,4 UV-I 0,0 C 54 % 86 % 0 % 1021,0 hPa 0,0 l/m 0,0 km/h (0 Bft) 0 min 0,0 km/h (0 Bft)
28.06.2010 05:54 24,2 C 15,5 C 0,4 UV-I 0,0 C 54 % 86 % 0 % 1021,0 hPa 0,0 l/m 0,0 km/h (0 Bft) 0 min 0,0 km/h (0 Bft)
28.06.2010 05:56 24,2 C 15,3 C 0,4 UV-I 0,0 C 54 % 86 % 0 % 1021,0 hPa 0,0 l/m 0,0 km/h (0 Bft) 0 min 0,0 km/h (0 Bft)
28.06.2010 05:58 24,2 C 15,3 C 0,4 UV-I 0,0 C 54 % 86 % 0 % 1021,0 hPa 0,0 l/m 0,0 km/h (0 Bft) 0 min 0,0 km/h (0 Bft)
28.06.2010 06:00 24,2 C 15,3 C 0,4 UV-I 0,0 C 54 % 86 % 0 % 1021,0 hPa 0,0 l/m 0,0 km/h (0 Bft) 0 min 0,0 km/h (0 Bft)
28.06.2010 06:02 24,2 C 15,3 C 0,5 UV-I 0,0 C 54 % 86 % 0 % 1021,0 hPa 0,0 l/m 0,0 km/h (0 Bft) 0 min 0,0 km/h (0 Bft)
28.06.2010 06:04 24,2 C 15,3 C 0,5 UV-I 0,0 C 54 % 86 % 0 % 1021,0 hPa 0,0 l/m 0,0 km/h (0 Bft) 0 min 0,0 km/h (0 Bft)
28.06.2010 06:06 24,1 C 15,3 C 0,5 UV-I 0,0 C 54 % 86 % 0 % 1021,0 hPa 0,0 l/m 0,0 km/h (0 Bft) 0 min 0,0 km/h (0 Bft)
28.06.2010 06:10 24,2 C 15,3 C 0,5 UV-I 0,0 C 54 % 87 % 0 % 1021,0 hPa 0,0 l/m 0,0 km/h (0 Bft) 0 min 0,0 km/h (0 Bft)
28.06.2010 06:12 24,1 C 15,3 C 0,7 UV-I 0,0 C 54 % 87 % 0 % 1021,1 hPa 0,0 l/m 0,0 km/h (0 Bft) 0 min 0,0 km/h (0 Bft)
28.06.2010 06:14 24,1 C 15,3 C 0,7 UV-I 0,0 C 54 % 87 % 0 % 1021,1 hPa 0,0 l/m 0,0 km/h (0 Bft) 0 min 0,0 km/h (0 Bft)
28.06.2010 06:16 24,1 C 15,3 C 0,7 UV-I 0,0 C 54 % 87 % 0 % 1021,1 hPa 0,0 l/m 0,0 km/h (0 Bft) 0 min 0,0 km/h (0 Bft)
28.06.2010 06:18 24,1 C 15,3 C 0,7 UV-I 0,0 C 54 % 87 % 0 % 1021,1 hPa 0,0 l/m 0,0 km/h (0 Bft) 0 min 0,0 km/h (0 Bft)
28.06.2010 06:20 24,1 C 15,4 C 0,7 UV-I 0,0 C 54 % 87 % 0 % 1021,1 hPa 0,0 l/m 0,0 km/h (0 Bft) 0 min 0,0 km/h (0 Bft)
28.06.2010 06:22 24,1 C 15,5 C 0,8 UV-I 0,0 C 54 % 88 % 0 % 1021,1 hPa 0,0 l/m 0,0 km/h (0 Bft) 0 min 0,0 km/h (0 Bft)
28.06.2010 06:24 24,1 C 15,5 C 0,8 UV-I 0,0 C 54 % 88 % 0 % 1021,1 hPa 0,0 l/m 0,0 km/h (0 Bft) 0 min 0,0 km/h (0 Bft)
28.06.2010 06:26 24,1 C 15,5 C 0,8 UV-I 0,0 C 54 % 88 % 0 % 1021,1 hPa 0,0 l/m 0,0 km/h (0 Bft) 0 min 0,0 km/h (0 Bft)
28.06.2010 06:28 24,1 C 15,4 C 0,9 UV-I 0,0 C 54 % 87 % 0 % 1021,1 hPa 0,0 l/m 0,0 km/h (0 Bft) 0 min 0,0 km/h (0 Bft)
28.06.2010 06:30 24,1 C 15,4 C 0,9 UV-I 0,0 C 54 % 87 % 0 % 1021,1 hPa 0,0 l/m 0,0 km/h (0 Bft) 0 min 0,0 km/h (0 Bft)
28.06.2010 06:32 24,1 C 15,5 C 1,0 UV-I 0,0 C 54 % 88 % 0 % 1021,1 hPa 0,0 l/m 0,0 km/h (0 Bft) 0 min 0,0 km/h (0 Bft)
28.06.2010 06:34 24,1 C 15,5 C 1,0 UV-I 0,0 C 54 % 88 % 0 % 1021,1 hPa 0,0 l/m 0,0 km/h (0 Bft) 0 min 0,0 km/h (0 Bft)
28.06.2010 06:36 24,1 C 15,6 C 1,0 UV-I 0,0 C 54 % 88 % 0 % 1021,1 hPa 0,0 l/m 0,0 km/h (0 Bft) 0 min 0,0 km/h (0 Bft)
28.06.2010 06:38 24,1 C 15,6 C 1,1 UV-I 0,0 C 54 % 88 % 0 % 1021,1 hPa 0,0 l/m 0,0 km/h (0 Bft) 0 min 0,0 km/h (0 Bft)
28.06.2010 06:40 24,1 C 15,6 C 1,1 UV-I 0,0 C 54 % 88 % 0 % 1021,1 hPa 0,0 l/m 0,0 km/h (0 Bft) 0 min 0,0 km/h (0 Bft)
28.06.2010 06:42 24,1 C 15,7 C 1,2 UV-I 0,0 C 54 % 88 % 0 % 1021,1 hPa 0,0 l/m 0,0 km/h (0 Bft) 0 min 0,0 km/h (0 Bft)
28.06.2010 06:44 24,1 C 15,7 C 1,2 UV-I 0,0 C 54 % 88 % 0 % 1021,1 hPa 0,0 l/m 0,0 km/h (0 Bft) 0 min 0,0 km/h (0 Bft)
28.06.2010 06:46 24,1 C 15,7 C 1,2 UV-I 0,0 C 54 % 88 % 0 % 1021,1 hPa 0,0 l/m 0,0 km/h (0 Bft) 0 min 0,0 km/h (0 Bft)
28.06.2010 06:48 24,1 C 15,6 C 1,3 UV-I 0,0 C 54 % 88 % 0 % 1021,1 hPa 0,0 l/m 0,0 km/h (0 Bft) 0 min 0,0 km/h (0 Bft)
28.06.2010 06:50 24,1 C 15,6 C 1,3 UV-I 0,0 C 54 % 88 % 0 % 1021,1 hPa 0,0 l/m 0,0 km/h (0 Bft) 0 min 0,0 km/h (0 Bft)
28.06.2010 06:52 24,1 C 15,8 C 1,4 UV-I 0,0 C 55 % 88 % 0 % 1021,3 hPa 0,0 l/m 0,0 km/h (0 Bft) 0 min 0,0 km/h (0 Bft)
28.06.2010 06:54 24,1 C 15,9 C 1,4 UV-I 0,0 C 54 % 88 % 0 % 1021,3 hPa 0,0 l/m 0,0 km/h (0 Bft) 0 min 0,0 km/h (0 Bft)
28.06.2010 06:56 24,1 C 15,9 C 1,4 UV-I 0,0 C 55 % 88 % 0 % 1021,3 hPa 0,0 l/m 0,0 km/h (0 Bft) 0 min 0,0 km/h (0 Bft)
28.06.2010 06:58 24,1 C 15,9 C 1,5 UV-I 0,0 C 54 % 88 % 0 % 1021,3 hPa 0,0 l/m 0,0 km/h (0 Bft) 0 min 0,0 km/h (0 Bft)
28.06.2010 07:00 24,1 C 15,9 C 1,5 UV-I 0,0 C 54 % 88 % 0 % 1021,3 hPa 0,0 l/m 0,0 km/h (0 Bft) 0 min 0,0 km/h (0 Bft)
28.06.2010 07:02 24,1 C 15,8 C 1,6 UV-I 0,0 C 54 % 88 % 0 % 1021,3 hPa 0,0 l/m 0,0 km/h (0 Bft) 0 min 0,0 km/h (0 Bft)
28.06.2010 07:04 24,1 C 15,9 C 1,6 UV-I 0,0 C 55 % 88 % 0 % 1021,3 hPa 0,0 l/m 0,0 km/h (0 Bft) 0 min 0,0 km/h (0 Bft)
28.06.2010 07:06 24,1 C 16,0 C 1,6 UV-I 0,0 C 54 % 88 % 0 % 1021,3 hPa 0,0 l/m 0,0 km/h (0 Bft) 0 min 0,0 km/h (0 Bft)
28.06.2010 07:10 24,1 C 16,0 C 1,7 UV-I 0,0 C 55 % 87 % 0 % 1021,3 hPa 0,0 l/m 0,0 km/h (0 Bft) 0 min 0,0 km/h (0 Bft)
28.06.2010 07:12 24,1 C 16,1 C 1,8 UV-I 0,0 C 55 % 86 % 0 % 1021,5 hPa 0,0 l/m 0,0 km/h (0 Bft) 0 min 0,0 km/h (0 Bft)
28.06.2010 07:14 24,1 C 16,2 C 1,8 UV-I 0,0 C 55 % 86 % 0 % 1021,5 hPa 0,0 l/m 0,0 km/h (0 Bft) 0 min 0,0 km/h (0 Bft)
28.06.2010 07:16 24,1 C 16,3 C 1,8 UV-I 0,0 C 54 % 86 % 0 % 1021,5 hPa 0,0 l/m 0,0 km/h (0 Bft) 0 min 0,0 km/h (0 Bft)
28.06.2010 07:18 24,1 C 16,3 C 2,0 UV-I 0,2 C 55 % 85 % 6 % 1021,5 hPa 0,0 l/m 0,0 km/h (0 Bft) 0 min 0,0 km/h (0 Bft)
28.06.2010 07:20 24,1 C 16,4 C 2,0 UV-I 0,1 C 54 % 85 % 3 % 1021,5 hPa 0,0 l/m 0,0 km/h (0 Bft) 0 min 0,0 km/h (0 Bft)
28.06.2010 07:22 24,1 C 16,5 C 2,1 UV-I 0,2 C 54 % 85 % 6 % 1021,5 hPa 0,0 l/m 0,0 km/h (0 Bft) 0 min 0,0 km/h (0 Bft)
28.06.2010 07:24 24,1 C 16,7 C 2,1 UV-I 0,1 C 54 % 85 % 3 % 1021,5 hPa 0,0 l/m 0,0 km/h (0 Bft) 0 min 0,0 km/h (0 Bft)
28.06.2010 07:28 24,1 C 16,8 C 2,2 UV-I 0,2 C 54 % 85 % 6 % 1021,5 hPa 0,0 l/m 0,0 km/h (0 Bft) 0 min 0,0 km/h (0 Bft)
28.06.2010 07:34 24,1 C 17,1 C 2,3 UV-I 0,3 C 54 % 83 % 9 % 1021,5 hPa 0,0 l/m 0,0 km/h (0 Bft) 0 min 0,0 km/h (0 Bft)
28.06.2010 07:36 24,1 C 17,1 C 2,3 UV-I 0,3 C 54 % 83 % 9 % 1021,5 hPa 0,0 l/m 0,0 km/h (0 Bft) 0 min 0,0 km/h (0 Bft)
28.06.2010 07:38 24,1 C 17,2 C 2,5 UV-I 0,3 C 54 % 83 % 9 % 1021,5 hPa 0,0 l/m 0,0 km/h (0 Bft) 0 min 0,0 km/h (0 Bft)
28.06.2010 07:42 24,1 C 17,3 C 2,6 UV-I 0,4 C 54 % 82 % 11 % 1021,5 hPa 0,0 l/m 0,0 km/h (0 Bft) 0 min 0,0 km/h (0 Bft)
28.06.2010 07:44 24,1 C 17,3 C 2,6 UV-I 0,5 C 54 % 82 % 14 % 1021,5 hPa 0,0 l/m 0,0 km/h (0 Bft) 0 min 0,0 km/h (0 Bft)
28.06.2010 07:46 24,1 C 17,4 C 2,6 UV-I 0,6 C 54 % 81 % 17 % 1021,5 hPa 0,0 l/m 0,0 km/h (0 Bft) 0 min 0,0 km/h (0 Bft)
28.06.2010 07:50 24,1 C 17,5 C 2,7 UV-I 0,5 C 54 % 81 % 14 % 1021,5 hPa 0,0 l/m 0,0 km/h (0 Bft) 0 min 0,0 km/h (0 Bft)
28.06.2010 07:52 24,1 C 17,7 C 2,8 UV-I 0,6 C 54 % 81 % 17 % 1021,6 hPa 0,0 l/m 0,0 km/h (0 Bft) 0 min 0,0 km/h (0 Bft)
28.06.2010 08:04 24,1 C 18,3 C 3,1 UV-I 0,6 C 54 % 79 % 17 % 1021,6 hPa 0,0 l/m 0,0 km/h (0 Bft) 0 min 0,0 km/h (0 Bft)
28.06.2010 08:06 24,1 C 18,4 C 3,1 UV-I 0,7 C 54 % 78 % 20 % 1021,6 hPa 0,0 l/m 0,0 km/h (0 Bft) 0 min 0,0 km/h (0 Bft)
28.06.2010 08:08 24,1 C 18,4 C 3,2 UV-I 0,9 C 54 % 78 % 26 % 1021,6 hPa 0,0 l/m 0,0 km/h (0 Bft) 0 min 0,0 km/h (0 Bft)
28.06.2010 08:14 24,1 C 18,8 C 3,3 UV-I 3,2 C 54 % 77 % 91 % 1021,6 hPa 0,0 l/m 0,0 km/h (0 Bft) 2 min 0,0 km/h (0 Bft)
28.06.2010 08:16 24,1 C 18,8 C 3,3 UV-I 4,0 C 54 % 77 % 100 % 1021,6 hPa 0,0 l/m 0,0 km/h (0 Bft) 2 min 0,0 km/h (0 Bft)
28.06.2010 08:20 24,1 C 19,1 C 3,5 UV-I 4,8 C 54 % 77 % 100 % 1021,6 hPa 0,0 l/m 0,0 km/h (0 Bft) 2 min 0,0 km/h (0 Bft)
28.06.2010 08:28 24,2 C 19,4 C 3,8 UV-I 6,5 C 54 % 76 % 100 % 1021,6 hPa 0,0 l/m 0,0 km/h (0 Bft) 2 min 0,0 km/h (0 Bft)
28.06.2010 08:36 24,2 C 20,1 C 4,5 UV-I 6,4 C 54 % 74 % 100 % 1021,8 hPa 0,0 l/m 0,4 km/h (0 Bft) 2 min 4,8 km/h (1 Bft)
28.06.2010 08:38 24,2 C 20,1 C 4,5 UV-I 6,4 C 54 % 74 % 100 % 1021,8 hPa 0,0 l/m 0,4 km/h (0 Bft) 2 min 0,0 km/h (0 Bft)
28.06.2010 08:40 24,2 C 20,3 C 4,5 UV-I 6,3 C 54 % 74 % 100 % 1021,8 hPa 0,0 l/m 0,0 km/h (0 Bft) 2 min 0,0 km/h (0 Bft)
28.06.2010 08:42 24,2 C 20,3 C 5,0 UV-I 6,6 C 54 % 74 % 100 % 1021,8 hPa 0,0 l/m 0,0 km/h (0 Bft) 2 min 0,0 km/h (0 Bft)
28.06.2010 08:43 24,2 C 20,5 C 5,0 UV-I 6,7 C 54 % 74 % 100 % 1021,8 hPa 0,0 l/m 0,0 km/h (0 Bft) 1 min 0,0 km/h (0 Bft)
28.06.2010 08:48 24,2 C 20,9 C 5,5 UV-I 7,0 C 54 % 72 % 100 % 1021,8 hPa 0,0 l/m 0,0 km/h (0 Bft) 2 min 0,0 km/h (0 Bft)
28.06.2010 08:53 24,2 C 21,4 C 5,9 UV-I 7,0 C 54 % 71 % 100 % 1022,0 hPa 0,0 l/m 0,4 km/h (0 Bft) 2 min 0,0 km/h (0 Bft)
28.06.2010 08:58 24,2 C 21,9 C 6,5 UV-I 7,0 C 54 % 69 % 100 % 1022,0 hPa 0,0 l/m 0,4 km/h (0 Bft) 2 min 0,0 km/h (0 Bft)
28.06.2010 09:02 24,2 C 22,3 C 7,1 UV-I 6,8 C 54 % 69 % 100 % 1022,0 hPa 0,0 l/m 0,8 km/h (0 Bft) 2 min 4,5 km/h (1 Bft)
28.06.2010 09:04 24,2 C 22,3 C 7,1 UV-I 6,8 C 54 % 69 % 100 % 1022,0 hPa 0,0 l/m 0,8 km/h (0 Bft) 2 min 4,5 km/h (1 Bft)
28.06.2010 09:06 24,2 C 22,4 C 7,1 UV-I 7,0 C 54 % 68 % 100 % 1022,0 hPa 0,0 l/m 0,8 km/h (0 Bft) 2 min 0,0 km/h (0 Bft)
28.06.2010 09:08 24,2 C 22,5 C 7,9 UV-I 7,1 C 54 % 68 % 100 % 1022,0 hPa 0,0 l/m 0,8 km/h (0 Bft) 2 min 0,0 km/h (0 Bft)
28.06.2010 09:10 24,2 C 22,5 C 7,9 UV-I 7,1 C 54 % 68 % 100 % 1022,0 hPa 0,0 l/m 0,8 km/h (0 Bft) 2 min 0,0 km/h (0 Bft)
28.06.2010 09:12 24,2 C 22,8 C 8,8 UV-I 7,5 C 54 % 67 % 100 % 1021,8 hPa 0,0 l/m 0,4 km/h (0 Bft) 2 min 0,0 km/h (0 Bft)
28.06.2010 09:14 24,3 C 22,9 C 8,8 UV-I 7,6 C 54 % 65 % 100 % 1021,8 hPa 0,0 l/m 0,4 km/h (0 Bft) 2 min 3,2 km/h (1 Bft)
28.06.2010 09:16 24,3 C 23,1 C 8,8 UV-I 7,4 C 54 % 65 % 100 % 1021,8 hPa 0,0 l/m 0,8 km/h (0 Bft) 2 min 5,8 km/h (2 Bft)
28.06.2010 09:18 24,3 C 23,1 C 9,4 UV-I 7,4 C 54 % 66 % 100 % 1021,8 hPa 0,0 l/m 0,8 km/h (0 Bft) 2 min 0,0 km/h (0 Bft)
28.06.2010 09:20 24,3 C 23,2 C 9,4 UV-I 7,2 C 54 % 65 % 100 % 1021,8 hPa 0,0 l/m 0,8 km/h (0 Bft) 2 min 0,0 km/h (0 Bft)
28.06.2010 09:22 24,3 C 23,4 C 9,6 UV-I 7,0 C 54 % 65 % 100 % 1021,8 hPa 0,0 l/m 0,8 km/h (0 Bft) 2 min 0,0 km/h (0 Bft)
28.06.2010 09:24 24,3 C 23,5 C 9,6 UV-I 6,8 C 54 % 65 % 100 % 1021,8 hPa 0,0 l/m 0,8 km/h (0 Bft) 2 min 0,0 km/h (0 Bft)
28.06.2010 09:26 24,2 C 23,7 C 9,6 UV-I 6,9 C 54 % 64 % 100 % 1021,8 hPa 0,0 l/m 1,2 km/h (1 Bft) 2 min 4,2 km/h (1 Bft)
28.06.2010 09:28 24,3 C 23,8 C 10,9 UV-I 7,0 C 54 % 64 % 100 % 1021,8 hPa 0,0 l/m 0,8 km/h (0 Bft) 2 min 0,0 km/h (0 Bft)
28.06.2010 09:30 24,3 C 23,8 C 10,9 UV-I 7,0 C 54 % 64 % 100 % 1021,8 hPa 0,0 l/m 0,8 km/h (0 Bft) 2 min 0,0 km/h (0 Bft)
28.06.2010 09:32 24,2 C 23,9 C 11,5 UV-I 7,5 C 54 % 63 % 100 % 1021,9 hPa 0,0 l/m 0,8 km/h (0 Bft) 2 min 0,0 km/h (0 Bft)
28.06.2010 09:34 24,2 C 24,1 C 11,5 UV-I 7,5 C 54 % 62 % 100 % 1021,9 hPa 0,0 l/m 0,8 km/h (0 Bft) 2 min 4,8 km/h (1 Bft)
28.06.2010 09:36 24,2 C 24,2 C 11,5 UV-I 7,5 C 54 % 62 % 100 % 1021,9 hPa 0,0 l/m 0,4 km/h (0 Bft) 2 min 0,0 km/h (0 Bft)
28.06.2010 09:38 24,2 C 24,3 C 11,7 UV-I 7,5 C 54 % 62 % 100 % 1021,9 hPa 0,0 l/m 0,4 km/h (0 Bft) 2 min 0,0 km/h (0 Bft)
28.06.2010 09:40 24,4 C 24,3 C 11,7 UV-I 7,5 C 54 % 61 % 100 % 1021,9 hPa 0,0 l/m 0,8 km/h (0 Bft) 2 min 3,2 km/h (1 Bft)
28.06.2010 09:42 24,4 C 24,4 C 11,7 UV-I 7,3 C 54 % 61 % 100 % 1021,9 hPa 0,0 l/m 0,8 km/h (0 Bft) 2 min 3,5 km/h (1 Bft)
28.06.2010 09:44 24,4 C 24,5 C 11,7 UV-I 7,1 C 54 % 61 % 100 % 1021,9 hPa 0,0 l/m 0,8 km/h (0 Bft) 2 min 0,0 km/h (0 Bft)
28.06.2010 09:46 24,4 C 24,7 C 11,7 UV-I 6,9 C 54 % 61 % 100 % 1021,9 hPa 0,0 l/m 0,8 km/h (0 Bft) 2 min 0,0 km/h (0 Bft)
28.06.2010 09:48 24,4 C 24,7 C 12,2 UV-I 6,9 C 54 % 60 % 100 % 1021,9 hPa 0,0 l/m 1,2 km/h (1 Bft) 2 min 3,2 km/h (1 Bft)
28.06.2010 09:50 24,4 C 24,7 C 12,2 UV-I 6,9 C 54 % 60 % 100 % 1021,9 hPa 0,0 l/m 1,2 km/h (1 Bft) 2 min 3,2 km/h (1 Bft)
28.06.2010 09:52 24,4 C 24,8 C 12,9 UV-I 7,2 C 54 % 60 % 100 % 1021,9 hPa 0,0 l/m 1,2 km/h (1 Bft) 2 min 3,5 km/h (1 Bft)
28.06.2010 09:54 24,4 C 24,9 C 12,9 UV-I 7,1 C 54 % 60 % 100 % 1021,9 hPa 0,0 l/m 0,8 km/h (0 Bft) 2 min 0,0 km/h (0 Bft)
28.06.2010 09:56 24,4 C 25,1 C 12,9 UV-I 7,1 C 54 % 60 % 100 % 1021,9 hPa 0,0 l/m 0,8 km/h (0 Bft) 2 min 0,0 km/h (0 Bft)
28.06.2010 09:58 24,4 C 25,1 C 13,4 UV-I 7,1 C 54 % 60 % 100 % 1021,9 hPa 0,0 l/m 0,8 km/h (0 Bft) 2 min 0,0 km/h (0 Bft)
28.06.2010 10:00 24,4 C 25,3 C 13,4 UV-I 7,2 C 54 % 60 % 100 % 1021,9 hPa 0,0 l/m 0,4 km/h (0 Bft) 2 min 0,0 km/h (0 Bft)
28.06.2010 10:02 24,4 C 25,4 C 14,0 UV-I 7,3 C 54 % 58 % 100 % 1021,9 hPa 0,0 l/m 1,2 km/h (1 Bft) 2 min 6,4 km/h (2 Bft)
28.06.2010 10:04 24,4 C 25,4 C 14,0 UV-I 7,4 C 54 % 59 % 100 % 1021,9 hPa 0,0 l/m 1,2 km/h (1 Bft) 2 min 0,0 km/h (0 Bft)
28.06.2010 10:06 24,4 C 25,4 C 14,0 UV-I 7,5 C 54 % 59 % 100 % 1021,9 hPa 0,0 l/m 1,2 km/h (1 Bft) 2 min 3,9 km/h (1 Bft)
28.06.2010 10:08 24,4 C 25,5 C 13,9 UV-I 7,6 C 54 % 57 % 100 % 1021,9 hPa 0,0 l/m 2,0 km/h (1 Bft) 2 min 4,2 km/h (1 Bft)
28.06.2010 10:10 24,4 C 25,5 C 13,9 UV-I 7,6 C 54 % 57 % 100 % 1021,9 hPa 0,0 l/m 2,0 km/h (1 Bft) 2 min 7,7 km/h (2 Bft)
28.06.2010 10:12 24,4 C 25,7 C 14,6 UV-I 7,3 C 54 % 52 % 100 % 1021,8 hPa 0,0 l/m 4,0 km/h (1 Bft) 2 min 8,4 km/h (2 Bft)
28.06.2010 10:14 24,4 C 25,7 C 14,6 UV-I 7,1 C 54 % 52 % 100 % 1021,8 hPa 0,0 l/m 4,0 km/h (1 Bft) 2 min 7,1 km/h (2 Bft)
28.06.2010 10:16 24,4 C 25,8 C 14,6 UV-I 7,2 C 54 % 53 % 100 % 1021,8 hPa 0,0 l/m 4,0 km/h (1 Bft) 2 min 0,0 km/h (0 Bft)
28.06.2010 10:18 24,5 C 25,9 C 15,1 UV-I 7,2 C 54 % 51 % 100 % 1021,8 hPa 0,0 l/m 4,4 km/h (1 Bft) 2 min 7,4 km/h (2 Bft)
28.06.2010 10:20 24,4 C 26,0 C 15,1 UV-I 7,2 C 54 % 52 % 100 % 1021,8 hPa 0,0 l/m 4,0 km/h (1 Bft) 2 min 8,7 km/h (2 Bft)
28.06.2010 10:22 24,5 C 26,0 C 15,1 UV-I 7,3 C 54 % 53 % 100 % 1021,8 hPa 0,0 l/m 3,6 km/h (1 Bft) 2 min 4,2 km/h (1 Bft)
28.06.2010 10:26 24,5 C 26,3 C 15,1 UV-I 7,2 C 54 % 52 % 100 % 1021,8 hPa 0,0 l/m 4,0 km/h (1 Bft) 2 min 9,7 km/h (2 Bft)
28.06.2010 10:28 24,5 C 26,4 C 15,1 UV-I 7,0 C 54 % 52 % 100 % 1021,8 hPa 0,0 l/m 4,4 km/h (1 Bft) 2 min 10,6 km/h (2 Bft)
28.06.2010 10:30 24,5 C 26,4 C 15,1 UV-I 7,0 C 54 % 52 % 100 % 1021,8 hPa 0,0 l/m 4,4 km/h (1 Bft) 2 min 10,6 km/h (2 Bft)
28.06.2010 10:32 24,5 C 26,5 C 14,9 UV-I 7,0 C 54 % 52 % 100 % 1021,6 hPa 0,0 l/m 4,4 km/h (1 Bft) 2 min 0,0 km/h (0 Bft)
28.06.2010 10:34 24,5 C 26,7 C 14,9 UV-I 6,9 C 54 % 52 % 100 % 1021,6 hPa 0,0 l/m 4,4 km/h (1 Bft) 2 min 3,9 km/h (1 Bft)
28.06.2010 10:36 24,5 C 26,7 C 14,9 UV-I 6,9 C 54 % 51 % 100 % 1021,6 hPa 0,0 l/m 4,4 km/h (1 Bft) 2 min 8,4 km/h (2 Bft)
28.06.2010 10:38 24,5 C 26,8 C 14,3 UV-I 6,8 C 54 % 51 % 100 % 1021,6 hPa 0,0 l/m 3,6 km/h (1 Bft) 2 min 7,7 km/h (2 Bft)
28.06.2010 10:40 24,6 C 26,8 C 14,3 UV-I 6,9 C 54 % 51 % 100 % 1021,6 hPa 0,0 l/m 2,8 km/h (1 Bft) 2 min 0,0 km/h (0 Bft)
28.06.2010 10:42 24,5 C 26,9 C 14,3 UV-I 6,9 C 54 % 52 % 100 % 1021,6 hPa 0,0 l/m 2,4 km/h (1 Bft) 2 min 0,0 km/h (0 Bft)
28.06.2010 10:44 24,5 C 26,9 C 14,3 UV-I 7,0 C 54 % 51 % 100 % 1021,6 hPa 0,0 l/m 3,2 km/h (1 Bft) 2 min 13,5 km/h (3 Bft)
28.06.2010 10:46 24,6 C 26,9 C 14,3 UV-I 7,0 C 54 % 49 % 100 % 1021,6 hPa 0,0 l/m 4,8 km/h (1 Bft) 2 min 10,6 km/h (2 Bft)
28.06.2010 10:48 24,6 C 26,9 C 14,5 UV-I 6,8 C 54 % 49 % 100 % 1021,6 hPa 0,0 l/m 5,6 km/h (1 Bft) 2 min 8,7 km/h (2 Bft)
28.06.2010 10:50 24,6 C 26,9 C 14,5 UV-I 6,8 C 54 % 49 % 100 % 1021,6 hPa 0,0 l/m 5,6 km/h (1 Bft) 2 min 8,7 km/h (2 Bft)
28.06.2010 10:52 24,6 C 27,1 C 14,2 UV-I 6,4 C 54 % 50 % 100 % 1021,9 hPa 0,0 l/m 6,0 km/h (2 Bft) 2 min 19,3 km/h (3 Bft)
28.06.2010 10:54 24,6 C 27,1 C 14,2 UV-I 6,6 C 54 % 48 % 100 % 1021,9 hPa 0,0 l/m 7,2 km/h (2 Bft) 2 min 11,6 km/h (2 Bft)
28.06.2010 10:56 24,6 C 27,0 C 14,2 UV-I 6,6 C 54 % 47 % 100 % 1021,9 hPa 0,0 l/m 6,4 km/h (2 Bft) 2 min 3,9 km/h (1 Bft)
28.06.2010 10:58 24,6 C 27,0 C 13,8 UV-I 6,6 C 54 % 48 % 100 % 1021,9 hPa 0,0 l/m 6,4 km/h (2 Bft) 2 min 14,2 km/h (3 Bft)
28.06.2010 11:00 24,6 C 27,1 C 13,8 UV-I 6,5 C 54 % 49 % 100 % 1021,9 hPa 0,0 l/m 5,6 km/h (1 Bft) 2 min 3,5 km/h (1 Bft)
28.06.2010 11:02 24,6 C 27,2 C 13,8 UV-I 6,4 C 54 % 49 % 100 % 1021,9 hPa 0,0 l/m 6,8 km/h (2 Bft) 2 min 14,8 km/h (3 Bft)
28.06.2010 11:04 24,6 C 27,3 C 13,8 UV-I 6,3 C 54 % 48 % 100 % 1021,9 hPa 0,0 l/m 7,2 km/h (2 Bft) 2 min 6,4 km/h (2 Bft)
28.06.2010 11:06 24,6 C 27,3 C 13,8 UV-I 6,4 C 54 % 48 % 100 % 1021,9 hPa 0,0 l/m 6,8 km/h (2 Bft) 2 min 11,9 km/h (2 Bft)
28.06.2010 11:08 24,6 C 27,2 C 14,0 UV-I 6,4 C 54 % 48 % 100 % 1021,9 hPa 0,0 l/m 8,0 km/h (2 Bft) 2 min 8,0 km/h (2 Bft)
28.06.2010 11:10 24,6 C 27,2 C 14,0 UV-I 6,4 C 54 % 48 % 100 % 1021,9 hPa 0,0 l/m 8,0 km/h (2 Bft) 2 min 8,0 km/h (2 Bft)
28.06.2010 11:12 24,7 C 27,3 C 14,1 UV-I 5,9 C 54 % 48 % 100 % 1022,1 hPa 0,0 l/m 9,6 km/h (2 Bft) 2 min 0,0 km/h (0 Bft)
28.06.2010 11:14 24,7 C 27,3 C 14,1 UV-I 6,0 C 53 % 48 % 100 % 1022,1 hPa 0,0 l/m 8,4 km/h (2 Bft) 2 min 5,8 km/h (2 Bft)
28.06.2010 11:16 24,7 C 27,4 C 14,1 UV-I 6,2 C 53 % 47 % 100 % 1022,1 hPa 0,0 l/m 9,6 km/h (2 Bft) 2 min 15,1 km/h (3 Bft)
28.06.2010 11:18 24,7 C 27,4 C 14,1 UV-I 6,1 C 53 % 47 % 100 % 1022,1 hPa 0,0 l/m 8,4 km/h (2 Bft) 2 min 8,7 km/h (2 Bft)
28.06.2010 11:22 24,7 C 27,5 C 13,8 UV-I 5,9 C 53 % 48 % 100 % 1022,1 hPa 0,0 l/m 6,4 km/h (2 Bft) 2 min 8,0 km/h (2 Bft)
28.06.2010 11:24 24,7 C 27,5 C 13,8 UV-I 6,1 C 53 % 48 % 100 % 1022,1 hPa 0,0 l/m 8,0 km/h (2 Bft) 2 min 11,3 km/h (2 Bft)
28.06.2010 11:26 24,8 C 27,5 C 13,8 UV-I 6,1 C 53 % 47 % 100 % 1022,1 hPa 0,0 l/m 8,0 km/h (2 Bft) 2 min 11,3 km/h (2 Bft)
28.06.2010 11:28 24,8 C 27,5 C 13,4 UV-I 6,1 C 53 % 48 % 100 % 1022,1 hPa 0,0 l/m 6,0 km/h (2 Bft) 2 min 0,0 km/h (0 Bft)
28.06.2010 11:30 24,8 C 27,5 C 13,4 UV-I 6,1 C 53 % 48 % 100 % 1022,1 hPa 0,0 l/m 6,0 km/h (2 Bft) 2 min 0,0 km/h (0 Bft)
28.06.2010 11:32 24,8 C 27,8 C 12,8 UV-I 6,2 C 53 % 48 % 100 % 1022,0 hPa 0,0 l/m 4,4 km/h (1 Bft) 2 min 3,5 km/h (1 Bft)
28.06.2010 11:34 24,8 C 28,0 C 12,8 UV-I 6,2 C 53 % 48 % 100 % 1022,0 hPa 0,0 l/m 3,2 km/h (1 Bft) 2 min 5,1 km/h (1 Bft)
28.06.2010 11:38 24,8 C 28,2 C 12,5 UV-I 6,3 C 53 % 46 % 100 % 1022,0 hPa 0,0 l/m 2,8 km/h (1 Bft) 2 min 8,0 km/h (2 Bft)
28.06.2010 11:40 24,8 C 28,1 C 12,5 UV-I 6,4 C 53 % 46 % 100 % 1022,0 hPa 0,0 l/m 4,0 km/h (1 Bft) 2 min 4,2 km/h (1 Bft)
28.06.2010 11:42 24,8 C 28,2 C 12,1 UV-I 6,3 C 53 % 46 % 100 % 1022,0 hPa 0,0 l/m 4,8 km/h (1 Bft) 2 min 8,7 km/h (2 Bft)
28.06.2010 11:44 24,8 C 28,2 C 12,1 UV-I 6,1 C 53 % 45 % 100 % 1022,0 hPa 0,0 l/m 6,0 km/h (2 Bft) 2 min 7,7 km/h (2 Bft)
28.06.2010 11:46 24,8 C 28,2 C 12,1 UV-I 6,1 C 53 % 45 % 100 % 1022,0 hPa 0,0 l/m 6,0 km/h (2 Bft) 2 min 7,1 km/h (2 Bft)
28.06.2010 11:48 24,8 C 28,2 C 11,8 UV-I 6,3 C 53 % 41 % 100 % 1022,0 hPa 0,0 l/m 7,2 km/h (2 Bft) 2 min 12,2 km/h (2 Bft)
28.06.2010 11:50 24,8 C 28,2 C 11,8 UV-I 6,3 C 53 % 41 % 100 % 1022,0 hPa 0,0 l/m 7,2 km/h (2 Bft) 2 min 12,2 km/h (2 Bft)
28.06.2010 11:52 24,9 C 28,3 C 11,1 UV-I 5,9 C 53 % 44 % 100 % 1022,1 hPa 0,0 l/m 7,2 km/h (2 Bft) 2 min 0,0 km/h (0 Bft)
28.06.2010 11:56 24,9 C 28,5 C 11,1 UV-I 5,9 C 53 % 42 % 100 % 1022,1 hPa 0,0 l/m 8,0 km/h (2 Bft) 2 min 10,6 km/h (2 Bft)
28.06.2010 11:58 24,9 C 28,4 C 10,8 UV-I 5,8 C 53 % 43 % 100 % 1022,1 hPa 0,0 l/m 8,4 km/h (2 Bft) 2 min 6,8 km/h (2 Bft)
28.06.2010 12:02 24,9 C 28,4 C 10,7 UV-I 5,8 C 53 % 40 % 100 % 1022,1 hPa 0,0 l/m 7,6 km/h (2 Bft) 2 min 6,8 km/h (2 Bft)
28.06.2010 12:06 25,0 C 28,4 C 10,7 UV-I 5,8 C 53 % 41 % 100 % 1022,1 hPa 0,0 l/m 7,2 km/h (2 Bft) 2 min 8,0 km/h (2 Bft)
28.06.2010 12:08 25,0 C 28,4 C 10,5 UV-I 5,8 C 53 % 40 % 100 % 1022,1 hPa 0,0 l/m 7,2 km/h (2 Bft) 2 min 10,6 km/h (2 Bft)
28.06.2010 12:10 25,0 C 28,4 C 10,5 UV-I 5,8 C 53 % 40 % 100 % 1022,1 hPa 0,0 l/m 7,2 km/h (2 Bft) 2 min 10,6 km/h (2 Bft)
28.06.2010 12:14 25,0 C 28,4 C 10,2 UV-I 5,6 C 53 % 40 % 100 % 1022,1 hPa 0,0 l/m 8,0 km/h (2 Bft) 2 min 10,0 km/h (2 Bft)
28.06.2010 12:16 25,0 C 28,5 C 10,2 UV-I 5,5 C 53 % 41 % 100 % 1022,1 hPa 0,0 l/m 8,0 km/h (2 Bft) 2 min 8,7 km/h (2 Bft)
28.06.2010 12:18 25,0 C 28,7 C 9,9 UV-I 5,6 C 53 % 39 % 100 % 1022,1 hPa 0,0 l/m 7,2 km/h (2 Bft) 2 min 12,9 km/h (3 Bft)
28.06.2010 12:23 25,1 C 28,8 C 9,9 UV-I 5,4 C 52 % 37 % 100 % 1022,1 hPa 0,0 l/m 6,8 km/h (2 Bft) 2 min 6,4 km/h (2 Bft)
28.06.2010 12:24 25,1 C 28,8 C 9,9 UV-I 5,4 C 52 % 37 % 100 % 1022,1 hPa 0,0 l/m 6,8 km/h (2 Bft) 1 min 6,4 km/h (2 Bft)
28.06.2010 12:26 25,1 C 28,9 C 9,9 UV-I 5,5 C 52 % 37 % 100 % 1022,1 hPa 0,0 l/m 6,0 km/h (2 Bft) 2 min 6,4 km/h (2 Bft)
28.06.2010 12:28 25,1 C 29,0 C 10,2 UV-I 5,6 C 52 % 38 % 100 % 1022,1 hPa 0,0 l/m 5,6 km/h (1 Bft) 2 min 11,6 km/h (2 Bft)
28.06.2010 12:30 25,1 C 29,0 C 10,2 UV-I 5,6 C 52 % 38 % 100 % 1022,1 hPa 0,0 l/m 5,6 km/h (1 Bft) 2 min 11,6 km/h (2 Bft)
28.06.2010 12:32 25,1 C 29,2 C 10,1 UV-I 5,6 C 52 % 38 % 100 % 1022,2 hPa 0,0 l/m 4,8 km/h (1 Bft) 2 min 4,8 km/h (1 Bft)
28.06.2010 12:34 25,2 C 29,3 C 10,1 UV-I 5,6 C 52 % 38 % 100 % 1022,2 hPa 0,0 l/m 4,8 km/h (1 Bft) 2 min 6,4 km/h (2 Bft)
28.06.2010 12:36 25,2 C 29,3 C 10,1 UV-I 5,6 C 52 % 38 % 100 % 1022,2 hPa 0,0 l/m 4,4 km/h (1 Bft) 2 min 0,0 km/h (0 Bft)
28.06.2010 12:38 25,2 C 29,5 C 10,0 UV-I 5,6 C 52 % 37 % 100 % 1022,2 hPa 0,0 l/m 4,4 km/h (1 Bft) 2 min 0,0 km/h (0 Bft)
28.06.2010 12:40 25,2 C 29,4 C 10,0 UV-I 6,0 C 52 % 37 % 100 % 1022,2 hPa 0,0 l/m 3,2 km/h (1 Bft) 2 min 7,1 km/h (2 Bft)
28.06.2010 12:42 25,2 C 29,7 C 9,7 UV-I 5,9 C 52 % 36 % 100 % 1022,2 hPa 0,0 l/m 3,2 km/h (1 Bft) 2 min 3,2 km/h (1 Bft)
28.06.2010 12:44 25,2 C 29,7 C 9,7 UV-I 5,9 C 52 % 34 % 100 % 1022,2 hPa 0,0 l/m 2,4 km/h (1 Bft) 2 min 5,8 km/h (2 Bft)
28.06.2010 12:46 25,2 C 29,9 C 9,7 UV-I 5,8 C 52 % 33 % 100 % 1022,2 hPa 0,0 l/m 2,4 km/h (1 Bft) 2 min 7,4 km/h (2 Bft)
28.06.2010 12:48 25,2 C 29,9 C 9,7 UV-I 5,9 C 52 % 34 % 100 % 1022,2 hPa 0,0 l/m 2,8 km/h (1 Bft) 2 min 6,4 km/h (2 Bft)
28.06.2010 12:50 25,2 C 29,9 C 9,7 UV-I 5,9 C 52 % 34 % 100 % 1022,2 hPa 0,0 l/m 2,8 km/h (1 Bft) 2 min 6,4 km/h (2 Bft)
28.06.2010 12:52 25,2 C 29,9 C 9,8 UV-I 5,9 C 52 % 35 % 100 % 1022,2 hPa 0,0 l/m 3,2 km/h (1 Bft) 2 min 5,5 km/h (1 Bft)
28.06.2010 12:54 25,3 C 30,0 C 9,8 UV-I 5,9 C 51 % 35 % 100 % 1022,2 hPa 0,0 l/m 3,6 km/h (1 Bft) 2 min 4,5 km/h (1 Bft)
28.06.2010 12:56 25,2 C 29,8 C 9,8 UV-I 6,0 C 51 % 33 % 100 % 1022,2 hPa 0,0 l/m 4,4 km/h (1 Bft) 2 min 3,2 km/h (1 Bft)
28.06.2010 12:58 25,3 C 29,8 C 9,8 UV-I 5,9 C 51 % 33 % 100 % 1022,2 hPa 0,0 l/m 4,8 km/h (1 Bft) 2 min 7,1 km/h (2 Bft)
28.06.2010 13:00 25,2 C 29,6 C 9,8 UV-I 6,0 C 51 % 34 % 100 % 1022,2 hPa 0,0 l/m 5,6 km/h (1 Bft) 2 min 5,1 km/h (1 Bft)
28.06.2010 13:02 25,2 C 29,7 C 9,7 UV-I 5,9 C 51 % 34 % 100 % 1022,2 hPa 0,0 l/m 5,2 km/h (1 Bft) 2 min 3,9 km/h (1 Bft)
28.06.2010 13:04 25,4 C 29,8 C 9,7 UV-I 5,7 C 51 % 34 % 100 % 1022,2 hPa 0,0 l/m 5,6 km/h (1 Bft) 2 min 8,4 km/h (2 Bft)
28.06.2010 13:06 25,4 C 29,9 C 9,7 UV-I 5,6 C 51 % 35 % 100 % 1022,2 hPa 0,0 l/m 4,4 km/h (1 Bft) 2 min 3,2 km/h (1 Bft)
28.06.2010 13:08 25,4 C 29,9 C 9,6 UV-I 5,6 C 51 % 34 % 100 % 1022,2 hPa 0,0 l/m 4,0 km/h (1 Bft) 2 min 4,5 km/h (1 Bft)
28.06.2010 13:10 25,4 C 29,9 C 9,6 UV-I 5,6 C 51 % 34 % 100 % 1022,2 hPa 0,0 l/m 4,0 km/h (1 Bft) 2 min 4,5 km/h (1 Bft)
28.06.2010 13:12 25,4 C 30,1 C 9,7 UV-I 5,5 C 51 % 34 % 100 % 1022,3 hPa 0,0 l/m 4,4 km/h (1 Bft) 2 min 5,5 km/h (1 Bft)
28.06.2010 13:14 25,4 C 30,1 C 9,7 UV-I 5,5 C 51 % 34 % 100 % 1022,3 hPa 0,0 l/m 4,4 km/h (1 Bft) 2 min 0,0 km/h (0 Bft)
28.06.2010 13:16 25,4 C 30,1 C 9,7 UV-I 5,5 C 51 % 34 % 100 % 1022,3 hPa 0,0 l/m 4,4 km/h (1 Bft) 2 min 9,7 km/h (2 Bft)
28.06.2010 13:18 25,4 C 30,1 C 9,7 UV-I 5,4 C 51 % 33 % 100 % 1022,3 hPa 0,0 l/m 6,4 km/h (2 Bft) 2 min 6,8 km/h (2 Bft)
28.06.2010 13:20 25,4 C 30,1 C 9,7 UV-I 5,3 C 51 % 34 % 100 % 1022,3 hPa 0,0 l/m 7,2 km/h (2 Bft) 2 min 13,8 km/h (3 Bft)
28.06.2010 13:22 25,5 C 30,0 C 9,5 UV-I 5,1 C 50 % 34 % 100 % 1022,3 hPa 0,0 l/m 8,4 km/h (2 Bft) 2 min 7,1 km/h (2 Bft)
28.06.2010 13:24 25,5 C 30,1 C 9,5 UV-I 4,8 C 50 % 33 % 100 % 1022,3 hPa 0,0 l/m 9,6 km/h (2 Bft) 2 min 10,9 km/h (2 Bft)
28.06.2010 13:26 25,5 C 29,9 C 9,5 UV-I 4,8 C 50 % 34 % 100 % 1022,3 hPa 0,0 l/m 9,2 km/h (2 Bft) 2 min 0,0 km/h (0 Bft)
28.06.2010 13:28 25,5 C 30,1 C 9,6 UV-I 4,6 C 50 % 34 % 100 % 1022,3 hPa 0,0 l/m 8,4 km/h (2 Bft) 2 min 15,8 km/h (3 Bft)
28.06.2010 13:30 25,5 C 30,1 C 9,6 UV-I 4,6 C 50 % 34 % 100 % 1022,3 hPa 0,0 l/m 8,4 km/h (2 Bft) 2 min 15,8 km/h (3 Bft)
28.06.2010 13:32 25,5 C 30,1 C 9,8 UV-I 4,6 C 50 % 33 % 100 % 1022,2 hPa 0,0 l/m 8,4 km/h (2 Bft) 2 min 8,7 km/h (2 Bft)
28.06.2010 13:34 25,6 C 30,3 C 9,8 UV-I 4,4 C 50 % 34 % 100 % 1022,2 hPa 0,0 l/m 7,2 km/h (2 Bft) 2 min 0,0 km/h (0 Bft)
28.06.2010 13:36 25,6 C 30,3 C 9,8 UV-I 4,6 C 50 % 33 % 100 % 1022,2 hPa 0,0 l/m 8,0 km/h (2 Bft) 2 min 6,8 km/h (2 Bft)
28.06.2010 13:38 25,6 C 30,2 C 9,7 UV-I 4,6 C 50 % 34 % 100 % 1022,2 hPa 0,0 l/m 8,8 km/h (2 Bft) 2 min 0,0 km/h (0 Bft)
28.06.2010 13:40 25,6 C 30,5 C 9,7 UV-I 4,5 C 50 % 34 % 100 % 1022,2 hPa 0,0 l/m 7,6 km/h (2 Bft) 2 min 21,2 km/h (4 Bft)
28.06.2010 13:42 25,6 C 30,6 C 9,8 UV-I 4,6 C 50 % 33 % 100 % 1022,2 hPa 0,0 l/m 7,2 km/h (2 Bft) 2 min 7,1 km/h (2 Bft)
28.06.2010 13:44 25,6 C 30,7 C 9,8 UV-I 4,6 C 50 % 32 % 100 % 1022,2 hPa 0,0 l/m 6,8 km/h (2 Bft) 2 min 6,4 km/h (2 Bft)
28.06.2010 13:46 25,7 C 30,6 C 9,8 UV-I 4,7 C 50 % 32 % 100 % 1022,2 hPa 0,0 l/m 6,4 km/h (2 Bft) 2 min 4,2 km/h (1 Bft)
28.06.2010 13:48 25,7 C 30,6 C 9,9 UV-I 4,7 C 50 % 32 % 100 % 1022,2 hPa 0,0 l/m 6,0 km/h (2 Bft) 2 min 6,1 km/h (2 Bft)
28.06.2010 13:50 25,7 C 30,6 C 9,9 UV-I 4,7 C 50 % 32 % 100 % 1022,2 hPa 0,0 l/m 6,0 km/h (2 Bft) 2 min 6,1 km/h (2 Bft)
28.06.2010 13:52 25,7 C 30,6 C 9,8 UV-I 4,9 C 50 % 32 % 100 % 1022,2 hPa 0,0 l/m 6,0 km/h (2 Bft) 2 min 6,4 km/h (2 Bft)
28.06.2010 13:54 25,7 C 30,7 C 9,8 UV-I 4,9 C 50 % 31 % 100 % 1022,2 hPa 0,0 l/m 6,4 km/h (2 Bft) 2 min 8,7 km/h (2 Bft)
28.06.2010 13:56 25,8 C 30,7 C 9,8 UV-I 4,9 C 50 % 31 % 100 % 1022,2 hPa 0,0 l/m 6,4 km/h (2 Bft) 2 min 7,1 km/h (2 Bft)
28.06.2010 13:58 25,8 C 30,8 C 10,1 UV-I 4,8 C 49 % 33 % 100 % 1022,2 hPa 0,0 l/m 6,4 km/h (2 Bft) 2 min 0,0 km/h (0 Bft)
28.06.2010 14:00 25,8 C 30,9 C 10,1 UV-I 4,8 C 49 % 32 % 100 % 1022,2 hPa 0,0 l/m 6,0 km/h (2 Bft) 2 min 9,0 km/h (2 Bft)
28.06.2010 14:02 25,8 C 30,9 C 10,0 UV-I 5,1 C 49 % 31 % 100 % 1022,2 hPa 0,0 l/m 6,0 km/h (2 Bft) 2 min 10,3 km/h (2 Bft)
28.06.2010 14:04 25,9 C 30,9 C 10,0 UV-I 5,0 C 49 % 32 % 100 % 1022,2 hPa 0,0 l/m 5,6 km/h (1 Bft) 2 min 4,5 km/h (1 Bft)
28.06.2010 14:06 25,9 C 31,0 C 10,0 UV-I 5,0 C 49 % 32 % 100 % 1022,2 hPa 0,0 l/m 5,2 km/h (1 Bft) 2 min 8,0 km/h (2 Bft)
28.06.2010 14:08 25,9 C 31,1 C 10,2 UV-I 4,9 C 49 % 32 % 100 % 1022,2 hPa 0,0 l/m 6,0 km/h (2 Bft) 2 min 7,4 km/h (2 Bft)
28.06.2010 14:10 25,9 C 31,1 C 10,2 UV-I 4,9 C 49 % 32 % 100 % 1022,2 hPa 0,0 l/m 6,0 km/h (2 Bft) 2 min 7,4 km/h (2 Bft)
28.06.2010 14:12 26,0 C 30,9 C 10,0 UV-I 4,8 C 49 % 32 % 100 % 1022,1 hPa 0,0 l/m 8,0 km/h (2 Bft) 2 min 8,0 km/h (2 Bft)
28.06.2010 14:14 26,0 C 30,8 C 10,0 UV-I 4,7 C 49 % 32 % 100 % 1022,1 hPa 0,0 l/m 8,4 km/h (2 Bft) 2 min 9,0 km/h (2 Bft)
28.06.2010 14:16 26,0 C 30,9 C 10,0 UV-I 4,7 C 49 % 32 % 100 % 1022,1 hPa 0,0 l/m 8,4 km/h (2 Bft) 2 min 7,4 km/h (2 Bft)
28.06.2010 14:18 26,1 C 31,1 C 10,4 UV-I 4,7 C 49 % 33 % 100 % 1022,1 hPa 0,0 l/m 7,6 km/h (2 Bft) 2 min 9,7 km/h (2 Bft)
28.06.2010 14:20 26,1 C 31,1 C 10,4 UV-I 4,8 C 49 % 32 % 100 % 1022,1 hPa 0,0 l/m 8,4 km/h (2 Bft) 2 min 12,2 km/h (2 Bft)
28.06.2010 14:22 26,1 C 31,1 C 10,0 UV-I 4,6 C 49 % 32 % 100 % 1022,1 hPa 0,0 l/m 8,0 km/h (2 Bft) 2 min 6,1 km/h (2 Bft)
28.06.2010 14:24 26,2 C 31,1 C 10,0 UV-I 4,4 C 49 % 32 % 100 % 1022,1 hPa 0,0 l/m 9,6 km/h (2 Bft) 2 min 20,9 km/h (4 Bft)
28.06.2010 14:26 26,2 C 31,0 C 10,0 UV-I 4,3 C 49 % 32 % 100 % 1022,1 hPa 0,0 l/m 11,2 km/h (2 Bft) 2 min 7,4 km/h (2 Bft)
28.06.2010 14:28 26,3 C 30,9 C 9,8 UV-I 4,2 C 48 % 33 % 100 % 1022,1 hPa 0,0 l/m 10,8 km/h (2 Bft) 2 min 7,4 km/h (2 Bft)
28.06.2010 14:30 26,3 C 30,9 C 9,8 UV-I 4,2 C 48 % 33 % 100 % 1022,1 hPa 0,0 l/m 10,8 km/h (2 Bft) 2 min 27,4 km/h (4 Bft)
28.06.2010 14:32 26,4 C 30,8 C 9,3 UV-I 4,3 C 48 % 32 % 100 % 1022,4 hPa 0,0 l/m 10,0 km/h (2 Bft) 2 min 8,7 km/h (2 Bft)
28.06.2010 14:34 26,4 C 30,8 C 9,3 UV-I 3,9 C 48 % 33 % 100 % 1022,4 hPa 0,0 l/m 8,4 km/h (2 Bft) 2 min 5,8 km/h (2 Bft)
28.06.2010 14:36 26,5 C 30,8 C 9,3 UV-I 3,6 C 48 % 33 % 100 % 1022,4 hPa 0,0 l/m 6,0 km/h (2 Bft) 2 min 0,0 km/h (0 Bft)
28.06.2010 14:38 26,5 C 30,9 C 9,8 UV-I 3,5 C 48 % 33 % 100 % 1022,4 hPa 0,0 l/m 6,0 km/h (2 Bft) 2 min 0,0 km/h (0 Bft)
28.06.2010 14:40 26,6 C 30,8 C 9,8 UV-I 4,0 C 48 % 33 % 100 % 1022,4 hPa 0,0 l/m 6,0 km/h (2 Bft) 2 min 5,1 km/h (1 Bft)
28.06.2010 14:42 26,7 C 30,9 C 9,8 UV-I 4,3 C 48 % 33 % 100 % 1022,4 hPa 0,0 l/m 6,0 km/h (2 Bft) 2 min 10,6 km/h (2 Bft)
28.06.2010 14:44 26,7 C 31,0 C 9,8 UV-I 4,4 C 47 % 33 % 100 % 1022,4 hPa 0,0 l/m 5,6 km/h (1 Bft) 2 min 8,7 km/h (2 Bft)
28.06.2010 14:46 26,8 C 31,1 C 9,8 UV-I 4,6 C 47 % 32 % 100 % 1022,4 hPa 0,0 l/m 6,4 km/h (2 Bft) 2 min 7,1 km/h (2 Bft)
28.06.2010 14:48 26,8 C 31,1 C 10,2 UV-I 4,5 C 47 % 32 % 100 % 1022,4 hPa 0,0 l/m 7,6 km/h (2 Bft) 2 min 12,6 km/h (3 Bft)
28.06.2010 14:50 26,8 C 31,1 C 10,2 UV-I 4,5 C 47 % 32 % 100 % 1022,4 hPa 0,0 l/m 7,6 km/h (2 Bft) 2 min 12,6 km/h (3 Bft)
28.06.2010 14:52 27,0 C 30,8 C 9,3 UV-I 4,2 C 47 % 33 % 100 % 1022,4 hPa 0,0 l/m 9,2 km/h (2 Bft) 2 min 5,1 km/h (1 Bft)
28.06.2010 14:54 27,0 C 30,8 C 9,3 UV-I 4,1 C 47 % 32 % 100 % 1022,4 hPa 0,0 l/m 8,4 km/h (2 Bft) 2 min 7,4 km/h (2 Bft)
28.06.2010 14:56 27,0 C 30,9 C 9,3 UV-I 3,9 C 47 % 33 % 100 % 1022,4 hPa 0,0 l/m 8,8 km/h (2 Bft) 2 min 4,5 km/h (1 Bft)
28.06.2010 14:58 27,1 C 30,9 C 10,2 UV-I 4,2 C 46 % 33 % 100 % 1022,4 hPa 0,0 l/m 7,6 km/h (2 Bft) 2 min 12,6 km/h (3 Bft)
28.06.2010 15:00 27,1 C 31,0 C 10,2 UV-I 4,2 C 46 % 32 % 100 % 1022,4 hPa 0,0 l/m 6,0 km/h (2 Bft) 2 min 10,3 km/h (2 Bft)
28.06.2010 15:02 27,2 C 31,1 C 9,9 UV-I 4,3 C 46 % 33 % 100 % 1022,4 hPa 0,0 l/m 6,0 km/h (2 Bft) 2 min 6,1 km/h (2 Bft)
28.06.2010 15:04 27,2 C 31,1 C 9,9 UV-I 4,4 C 46 % 33 % 100 % 1022,4 hPa 0,0 l/m 6,0 km/h (2 Bft) 2 min 6,8 km/h (2 Bft)
28.06.2010 15:06 27,2 C 31,1 C 9,9 UV-I 4,6 C 46 % 33 % 100 % 1022,4 hPa 0,0 l/m 5,6 km/h (1 Bft) 2 min 8,7 km/h (2 Bft)
28.06.2010 15:08 27,2 C 31,2 C 9,5 UV-I 4,3 C 46 % 33 % 100 % 1022,4 hPa 0,0 l/m 6,4 km/h (2 Bft) 2 min 10,3 km/h (2 Bft)
28.06.2010 15:10 27,2 C 31,2 C 9,5 UV-I 4,3 C 46 % 33 % 100 % 1022,4 hPa 0,0 l/m 6,4 km/h (2 Bft) 2 min 10,3 km/h (2 Bft)
28.06.2010 15:12 27,2 C 31,1 C 9,7 UV-I 4,3 C 46 % 33 % 100 % 1023,0 hPa 0,0 l/m 7,2 km/h (2 Bft) 2 min 4,2 km/h (1 Bft)
28.06.2010 15:14 27,4 C 31,0 C 9,7 UV-I 4,2 C 46 % 33 % 100 % 1023,0 hPa 0,0 l/m 7,6 km/h (2 Bft) 2 min 7,1 km/h (2 Bft)
28.06.2010 15:16 27,4 C 31,0 C 9,7 UV-I 4,3 C 46 % 33 % 100 % 1023,0 hPa 0,0 l/m 8,0 km/h (2 Bft) 2 min 6,1 km/h (2 Bft)
28.06.2010 15:18 27,4 C 31,1 C 10,0 UV-I 4,2 C 46 % 32 % 100 % 1023,0 hPa 0,0 l/m 8,4 km/h (2 Bft) 2 min 12,2 km/h (2 Bft)
28.06.2010 15:20 27,5 C 31,3 C 10,0 UV-I 4,1 C 46 % 32 % 100 % 1023,0 hPa 0,0 l/m 8,0 km/h (2 Bft) 2 min 7,1 km/h (2 Bft)
28.06.2010 15:22 27,5 C 31,3 C 10,7 UV-I 4,3 C 46 % 32 % 100 % 1023,0 hPa 0,0 l/m 6,8 km/h (2 Bft) 2 min 5,8 km/h (2 Bft)
28.06.2010 15:24 27,6 C 31,3 C 10,7 UV-I 4,4 C 46 % 32 % 100 % 1023,0 hPa 0,0 l/m 6,8 km/h (2 Bft) 2 min 6,8 km/h (2 Bft)
28.06.2010 15:26 27,6 C 31,3 C 10,7 UV-I 4,2 C 45 % 31 % 100 % 1023,0 hPa 0,0 l/m 6,4 km/h (2 Bft) 2 min 8,4 km/h (2 Bft)
28.06.2010 15:28 27,6 C 31,2 C 9,6 UV-I 4,2 C 45 % 31 % 100 % 1023,0 hPa 0,0 l/m 5,6 km/h (1 Bft) 2 min 6,8 km/h (2 Bft)
28.06.2010 15:30 27,6 C 31,2 C 9,6 UV-I 4,2 C 45 % 31 % 100 % 1023,0 hPa 0,0 l/m 5,6 km/h (1 Bft) 2 min 6,8 km/h (2 Bft)
28.06.2010 15:32 27,7 C 31,3 C 9,6 UV-I 3,8 C 45 % 32 % 100 % 1023,2 hPa 0,0 l/m 5,2 km/h (1 Bft) 2 min 5,5 km/h (1 Bft)
28.06.2010 15:34 27,7 C 31,2 C 9,6 UV-I 3,8 C 45 % 32 % 100 % 1023,2 hPa 0,0 l/m 6,0 km/h (2 Bft) 2 min 7,4 km/h (2 Bft)
28.06.2010 15:36 27,8 C 31,2 C 9,6 UV-I 3,8 C 45 % 32 % 100 % 1023,2 hPa 0,0 l/m 6,4 km/h (2 Bft) 2 min 9,0 km/h (2 Bft)
28.06.2010 15:38 27,8 C 31,2 C 9,6 UV-I 3,8 C 45 % 32 % 100 % 1023,2 hPa 0,0 l/m 6,4 km/h (2 Bft) 2 min 5,5 km/h (1 Bft)
28.06.2010 15:40 27,8 C 31,2 C 9,6 UV-I 3,9 C 45 % 33 % 100 % 1023,2 hPa 0,0 l/m 6,4 km/h (2 Bft) 2 min 4,2 km/h (1 Bft)
28.06.2010 15:42 27,8 C 31,3 C 10,0 UV-I 4,0 C 45 % 32 % 100 % 1023,2 hPa 0,0 l/m 7,2 km/h (2 Bft) 2 min 11,6 km/h (2 Bft)
28.06.2010 15:44 27,9 C 31,3 C 10,0 UV-I 4,1 C 45 % 32 % 100 % 1023,2 hPa 0,0 l/m 6,8 km/h (2 Bft) 2 min 5,1 km/h (1 Bft)
28.06.2010 15:46 28,0 C 31,3 C 10,0 UV-I 4,3 C 45 % 32 % 100 % 1023,2 hPa 0,0 l/m 5,2 km/h (1 Bft) 2 min 0,0 km/h (0 Bft)
28.06.2010 15:48 28,0 C 31,5 C 9,7 UV-I 4,4 C 45 % 32 % 100 % 1023,2 hPa 0,0 l/m 4,8 km/h (1 Bft) 2 min 8,7 km/h (2 Bft)
28.06.2010 15:50 28,0 C 31,5 C 9,7 UV-I 4,4 C 45 % 32 % 100 % 1023,2 hPa 0,0 l/m 4,8 km/h (1 Bft) 2 min 8,7 km/h (2 Bft)
28.06.2010 15:52 28,0 C 31,1 C 8,5 UV-I 4,4 C 44 % 32 % 100 % 1023,8 hPa 0,0 l/m 6,4 km/h (2 Bft) 2 min 6,1 km/h (2 Bft)
28.06.2010 15:54 28,0 C 31,0 C 8,5 UV-I 4,2 C 44 % 33 % 100 % 1023,8 hPa 0,0 l/m 7,2 km/h (2 Bft) 2 min 18,3 km/h (3 Bft)
28.06.2010 15:56 28,0 C 30,8 C 8,5 UV-I 3,9 C 44 % 33 % 100 % 1023,8 hPa 0,0 l/m 8,4 km/h (2 Bft) 2 min 9,3 km/h (2 Bft)
28.06.2010 15:58 28,0 C 30,8 C 7,7 UV-I 3,5 C 44 % 34 % 100 % 1023,8 hPa 0,0 l/m 9,2 km/h (2 Bft) 2 min 5,5 km/h (1 Bft)
28.06.2010 16:00 28,0 C 30,7 C 7,7 UV-I 3,4 C 44 % 34 % 97 % 1023,8 hPa 0,0 l/m 8,8 km/h (2 Bft) 2 min 12,6 km/h (3 Bft)
28.06.2010 16:02 28,0 C 30,8 C 7,5 UV-I 3,1 C 44 % 33 % 89 % 1023,8 hPa 0,0 l/m 8,4 km/h (2 Bft) 2 min 7,7 km/h (2 Bft)
28.06.2010 16:04 28,0 C 30,7 C 7,5 UV-I 3,0 C 44 % 34 % 86 % 1023,8 hPa 0,0 l/m 8,0 km/h (2 Bft) 2 min 20,0 km/h (4 Bft)
28.06.2010 16:06 28,0 C 30,7 C 7,5 UV-I 2,9 C 44 % 34 % 83 % 1023,8 hPa 0,0 l/m 7,2 km/h (2 Bft) 2 min 4,5 km/h (1 Bft)
28.06.2010 16:08 28,0 C 30,5 C 7,5 UV-I 3,0 C 44 % 35 % 86 % 1023,8 hPa 0,0 l/m 7,6 km/h (2 Bft) 2 min 4,2 km/h (1 Bft)
28.06.2010 16:10 28,0 C 30,5 C 7,5 UV-I 3,0 C 44 % 35 % 86 % 1023,8 hPa 0,0 l/m 7,6 km/h (2 Bft) 2 min 4,2 km/h (1 Bft)
28.06.2010 16:12 28,0 C 30,5 C 6,9 UV-I 2,7 C 44 % 34 % 77 % 1023,2 hPa 0,0 l/m 7,2 km/h (2 Bft) 0 min 4,2 km/h (1 Bft)
28.06.2010 16:14 28,0 C 30,5 C 6,9 UV-I 2,5 C 44 % 34 % 71 % 1023,2 hPa 0,0 l/m 8,0 km/h (2 Bft) 0 min 12,9 km/h (3 Bft)
28.06.2010 16:16 28,0 C 30,3 C 6,9 UV-I 2,5 C 44 % 34 % 71 % 1023,2 hPa 0,0 l/m 8,0 km/h (2 Bft) 0 min 14,2 km/h (3 Bft)
28.06.2010 16:18 28,0 C 30,3 C 6,9 UV-I 2,2 C 44 % 35 % 63 % 1023,2 hPa 0,0 l/m 8,4 km/h (2 Bft) 0 min 7,1 km/h (2 Bft)
28.06.2010 16:20 27,9 C 30,2 C 6,9 UV-I 2,2 C 44 % 35 % 63 % 1023,2 hPa 0,0 l/m 9,6 km/h (2 Bft) 0 min 16,1 km/h (3 Bft)
28.06.2010 16:22 27,9 C 30,1 C 7,5 UV-I 2,2 C 44 % 34 % 63 % 1023,2 hPa 0,0 l/m 10,4 km/h (2 Bft) 0 min 16,7 km/h (3 Bft)
28.06.2010 16:24 27,9 C 30,1 C 7,5 UV-I 2,2 C 44 % 35 % 63 % 1023,2 hPa 0,0 l/m 11,2 km/h (2 Bft) 0 min 5,8 km/h (2 Bft)
28.06.2010 16:26 27,9 C 30,1 C 7,5 UV-I 2,2 C 44 % 34 % 63 % 1023,2 hPa 0,0 l/m 10,4 km/h (2 Bft) 0 min 12,2 km/h (2 Bft)
28.06.2010 16:28 27,9 C 30,1 C 7,7 UV-I 2,4 C 44 % 34 % 69 % 1023,2 hPa 0,0 l/m 10,0 km/h (2 Bft) 0 min 10,9 km/h (2 Bft)
28.06.2010 16:30 27,9 C 30,1 C 7,7 UV-I 2,4 C 44 % 34 % 69 % 1023,2 hPa 0,0 l/m 10,0 km/h (2 Bft) 0 min 10,9 km/h (2 Bft)
28.06.2010 16:32 27,9 C 30,0 C 7,7 UV-I 2,6 C 44 % 35 % 74 % 1022,6 hPa 0,0 l/m 7,6 km/h (2 Bft) 0 min 5,1 km/h (1 Bft)
28.06.2010 16:34 27,9 C 30,1 C 7,7 UV-I 2,6 C 45 % 33 % 74 % 1022,6 hPa 0,0 l/m 6,4 km/h (2 Bft) 0 min 6,8 km/h (2 Bft)
28.06.2010 16:36 27,8 C 30,0 C 7,7 UV-I 2,6 C 44 % 34 % 74 % 1022,6 hPa 0,0 l/m 5,6 km/h (1 Bft) 0 min 4,5 km/h (1 Bft)
28.06.2010 16:38 27,9 C 30,1 C 7,1 UV-I 2,5 C 44 % 35 % 71 % 1022,6 hPa 0,0 l/m 4,8 km/h (1 Bft) 0 min 5,5 km/h (1 Bft)
28.06.2010 16:40 27,8 C 30,0 C 7,1 UV-I 2,6 C 45 % 34 % 74 % 1022,6 hPa 0,0 l/m 5,2 km/h (1 Bft) 0 min 6,4 km/h (2 Bft)
28.06.2010 16:42 27,8 C 29,9 C 7,2 UV-I 2,7 C 45 % 33 % 77 % 1022,6 hPa 0,0 l/m 6,0 km/h (2 Bft) 0 min 6,8 km/h (2 Bft)
28.06.2010 16:44 27,8 C 29,9 C 7,2 UV-I 2,6 C 45 % 34 % 74 % 1022,6 hPa 0,0 l/m 6,0 km/h (2 Bft) 0 min 6,1 km/h (2 Bft)
28.06.2010 16:46 27,8 C 30,0 C 7,2 UV-I 2,6 C 45 % 34 % 74 % 1022,6 hPa 0,0 l/m 6,4 km/h (2 Bft) 0 min 8,4 km/h (2 Bft)
28.06.2010 16:48 27,8 C 29,9 C 7,6 UV-I 2,8 C 45 % 33 % 80 % 1022,6 hPa 0,0 l/m 6,8 km/h (2 Bft) 0 min 5,8 km/h (2 Bft)
28.06.2010 16:50 27,8 C 29,9 C 7,6 UV-I 2,8 C 45 % 33 % 80 % 1022,6 hPa 0,0 l/m 6,8 km/h (2 Bft) 0 min 5,8 km/h (2 Bft)
28.06.2010 16:52 27,8 C 29,9 C 8,2 UV-I 2,9 C 45 % 34 % 83 % 1023,0 hPa 0,0 l/m 6,8 km/h (2 Bft) 2 min 0,0 km/h (0 Bft)
28.06.2010 16:54 27,7 C 29,9 C 8,2 UV-I 3,0 C 45 % 33 % 86 % 1023,0 hPa 0,0 l/m 6,4 km/h (2 Bft) 2 min 12,6 km/h (3 Bft)
28.06.2010 16:56 27,7 C 29,8 C 8,2 UV-I 3,2 C 45 % 32 % 91 % 1023,0 hPa 0,0 l/m 7,2 km/h (2 Bft) 2 min 9,3 km/h (2 Bft)
28.06.2010 16:58 27,7 C 29,8 C 8,1 UV-I 3,2 C 45 % 32 % 91 % 1023,0 hPa 0,0 l/m 6,8 km/h (2 Bft) 2 min 3,2 km/h (1 Bft)
28.06.2010 17:00 27,7 C 29,9 C 8,1 UV-I 3,1 C 45 % 32 % 89 % 1023,0 hPa 0,0 l/m 6,8 km/h (2 Bft) 2 min 10,9 km/h (2 Bft)
28.06.2010 17:02 27,7 C 30,0 C 7,8 UV-I 3,1 C 45 % 32 % 89 % 1023,0 hPa 0,0 l/m 5,2 km/h (1 Bft) 2 min 7,4 km/h (2 Bft)
28.06.2010 17:04 27,7 C 29,9 C 7,8 UV-I 3,3 C 45 % 32 % 94 % 1023,0 hPa 0,0 l/m 6,8 km/h (2 Bft) 2 min 10,6 km/h (2 Bft)
28.06.2010 17:06 27,7 C 29,9 C 7,8 UV-I 3,2 C 45 % 32 % 91 % 1023,0 hPa 0,0 l/m 6,4 km/h (2 Bft) 2 min 8,7 km/h (2 Bft)
28.06.2010 17:08 27,6 C 29,9 C 7,4 UV-I 3,1 C 45 % 33 % 89 % 1023,0 hPa 0,0 l/m 5,6 km/h (1 Bft) 2 min 5,1 km/h (1 Bft)
28.06.2010 17:10 27,6 C 29,9 C 7,4 UV-I 3,1 C 45 % 33 % 89 % 1023,0 hPa 0,0 l/m 5,6 km/h (1 Bft) 2 min 5,1 km/h (1 Bft)
28.06.2010 17:12 27,6 C 29,8 C 7,1 UV-I 3,2 C 45 % 33 % 91 % 1022,6 hPa 0,0 l/m 6,0 km/h (2 Bft) 2 min 7,4 km/h (2 Bft)
28.06.2010 17:14 27,6 C 29,9 C 7,1 UV-I 2,9 C 45 % 34 % 83 % 1022,6 hPa 0,0 l/m 6,0 km/h (2 Bft) 2 min 13,8 km/h (3 Bft)
28.06.2010 17:16 27,6 C 29,9 C 7,1 UV-I 2,9 C 45 % 33 % 83 % 1022,6 hPa 0,0 l/m 6,0 km/h (2 Bft) 2 min 4,2 km/h (1 Bft)
28.06.2010 17:18 27,6 C 29,9 C 6,9 UV-I 2,8 C 45 % 34 % 80 % 1022,6 hPa 0,0 l/m 6,0 km/h (2 Bft) 0 min 7,4 km/h (2 Bft)
28.06.2010 17:20 27,6 C 29,8 C 6,9 UV-I 2,8 C 45 % 34 % 80 % 1022,6 hPa 0,0 l/m 6,4 km/h (2 Bft) 0 min 0,0 km/h (0 Bft)
28.06.2010 17:22 27,6 C 29,8 C 7,1 UV-I 2,8 C 45 % 34 % 80 % 1022,6 hPa 0,0 l/m 6,4 km/h (2 Bft) 0 min 9,7 km/h (2 Bft)
28.06.2010 17:24 27,6 C 29,9 C 7,1 UV-I 2,7 C 45 % 35 % 77 % 1022,6 hPa 0,0 l/m 6,4 km/h (2 Bft) 0 min 6,4 km/h (2 Bft)
28.06.2010 17:26 27,6 C 29,9 C 7,1 UV-I 2,8 C 45 % 35 % 80 % 1022,6 hPa 0,0 l/m 5,6 km/h (1 Bft) 0 min 6,4 km/h (2 Bft)
28.06.2010 17:28 27,6 C 29,8 C 7,6 UV-I 3,0 C 45 % 35 % 86 % 1022,6 hPa 0,0 l/m 5,6 km/h (1 Bft) 2 min 10,0 km/h (2 Bft)
28.06.2010 17:30 27,6 C 29,8 C 7,6 UV-I 3,0 C 45 % 35 % 86 % 1022,6 hPa 0,0 l/m 5,6 km/h (1 Bft) 2 min 10,0 km/h (2 Bft)
28.06.2010 17:34 27,6 C 30,1 C 8,4 UV-I 3,2 C 45 % 36 % 91 % 1022,4 hPa 0,0 l/m 5,6 km/h (1 Bft) 2 min 7,4 km/h (2 Bft)
28.06.2010 17:36 27,6 C 30,1 C 8,4 UV-I 3,4 C 45 % 35 % 97 % 1022,4 hPa 0,0 l/m 5,6 km/h (1 Bft) 2 min 7,1 km/h (2 Bft)
28.06.2010 17:38 27,6 C 30,1 C 8,6 UV-I 3,5 C 45 % 35 % 100 % 1022,4 hPa 0,0 l/m 6,0 km/h (2 Bft) 2 min 0,0 km/h (0 Bft)
28.06.2010 17:40 27,6 C 30,2 C 8,6 UV-I 3,6 C 45 % 35 % 100 % 1022,4 hPa 0,0 l/m 5,6 km/h (1 Bft) 2 min 9,7 km/h (2 Bft)
28.06.2010 17:42 27,6 C 30,3 C 8,3 UV-I 3,6 C 45 % 35 % 100 % 1022,4 hPa 0,0 l/m 6,4 km/h (2 Bft) 2 min 8,7 km/h (2 Bft)
28.06.2010 17:44 27,6 C 30,3 C 8,3 UV-I 3,6 C 45 % 34 % 100 % 1022,4 hPa 0,0 l/m 6,4 km/h (2 Bft) 2 min 5,8 km/h (2 Bft)
28.06.2010 17:46 27,6 C 30,3 C 8,3 UV-I 3,5 C 45 % 35 % 100 % 1022,4 hPa 0,0 l/m 6,0 km/h (2 Bft) 2 min 3,5 km/h (1 Bft)
28.06.2010 17:48 27,6 C 30,3 C 7,7 UV-I 3,4 C 45 % 35 % 97 % 1022,4 hPa 0,0 l/m 5,6 km/h (1 Bft) 2 min 7,7 km/h (2 Bft)
28.06.2010 17:50 27,6 C 30,3 C 7,7 UV-I 3,4 C 45 % 35 % 97 % 1022,4 hPa 0,0 l/m 5,6 km/h (1 Bft) 2 min 7,7 km/h (2 Bft)
28.06.2010 17:52 27,7 C 30,3 C 7,8 UV-I 3,4 C 45 % 36 % 97 % 1022,4 hPa 0,0 l/m 5,2 km/h (1 Bft) 2 min 0,0 km/h (0 Bft)
28.06.2010 17:56 27,7 C 30,2 C 7,8 UV-I 3,6 C 45 % 35 % 100 % 1022,4 hPa 0,0 l/m 4,8 km/h (1 Bft) 2 min 15,8 km/h (3 Bft)
28.06.2010 17:58 27,7 C 30,1 C 6,6 UV-I 3,5 C 45 % 34 % 100 % 1022,4 hPa 0,0 l/m 5,2 km/h (1 Bft) 2 min 5,8 km/h (2 Bft)
28.06.2010 18:00 27,7 C 30,1 C 6,6 UV-I 3,3 C 45 % 35 % 94 % 1022,4 hPa 0,0 l/m 4,8 km/h (1 Bft) 2 min 10,6 km/h (2 Bft)
28.06.2010 18:02 27,7 C 30,0 C 5,5 UV-I 3,4 C 45 % 34 % 97 % 1022,4 hPa 0,0 l/m 4,8 km/h (1 Bft) 2 min 5,8 km/h (2 Bft)
28.06.2010 18:04 27,7 C 30,0 C 5,5 UV-I 3,3 C 45 % 35 % 94 % 1022,4 hPa 0,0 l/m 4,0 km/h (1 Bft) 2 min 0,0 km/h (0 Bft)
28.06.2010 18:06 27,7 C 30,0 C 5,5 UV-I 3,2 C 45 % 35 % 91 % 1022,4 hPa 0,0 l/m 4,4 km/h (1 Bft) 2 min 6,1 km/h (2 Bft)
28.06.2010 18:08 27,7 C 30,0 C 4,9 UV-I 2,9 C 45 % 33 % 83 % 1022,4 hPa 0,0 l/m 4,8 km/h (1 Bft) 2 min 14,5 km/h (3 Bft)
28.06.2010 18:10 27,7 C 30,0 C 4,9 UV-I 2,9 C 45 % 33 % 83 % 1022,4 hPa 0,0 l/m 4,8 km/h (1 Bft) 2 min 14,5 km/h (3 Bft)
28.06.2010 18:12 27,7 C 29,9 C 4,7 UV-I 2,4 C 45 % 33 % 69 % 1022,6 hPa 0,0 l/m 7,2 km/h (2 Bft) 0 min 18,3 km/h (3 Bft)
28.06.2010 18:14 27,7 C 29,7 C 4,7 UV-I 2,2 C 45 % 33 % 63 % 1022,6 hPa 0,0 l/m 8,4 km/h (2 Bft) 0 min 7,1 km/h (2 Bft)
28.06.2010 18:16 27,7 C 29,7 C 4,7 UV-I 1,9 C 45 % 33 % 54 % 1022,6 hPa 0,0 l/m 10,0 km/h (2 Bft) 0 min 7,7 km/h (2 Bft)
28.06.2010 18:18 27,7 C 29,6 C 4,3 UV-I 1,9 C 45 % 33 % 54 % 1022,6 hPa 0,0 l/m 10,0 km/h (2 Bft) 0 min 7,4 km/h (2 Bft)
28.06.2010 18:20 27,7 C 29,7 C 4,3 UV-I 1,5 C 45 % 33 % 43 % 1022,6 hPa 0,0 l/m 8,8 km/h (2 Bft) 0 min 10,0 km/h (2 Bft)
28.06.2010 18:22 27,7 C 29,5 C 4,1 UV-I 1,5 C 45 % 34 % 43 % 1022,6 hPa 0,0 l/m 8,8 km/h (2 Bft) 0 min 6,8 km/h (2 Bft)
28.06.2010 18:24 27,7 C 29,5 C 4,1 UV-I 1,4 C 45 % 35 % 40 % 1022,6 hPa 0,0 l/m 7,2 km/h (2 Bft) 0 min 0,0 km/h (0 Bft)
28.06.2010 18:26 27,7 C 29,5 C 4,1 UV-I 1,4 C 45 % 34 % 40 % 1022,6 hPa 0,0 l/m 6,0 km/h (2 Bft) 0 min 7,4 km/h (2 Bft)
28.06.2010 18:28 27,7 C 29,4 C 4,0 UV-I 1,5 C 45 % 34 % 43 % 1022,6 hPa 0,0 l/m 6,0 km/h (2 Bft) 0 min 7,7 km/h (2 Bft)
28.06.2010 18:30 27,7 C 29,4 C 4,0 UV-I 1,5 C 45 % 34 % 43 % 1022,6 hPa 0,0 l/m 6,0 km/h (2 Bft) 0 min 7,7 km/h (2 Bft)
28.06.2010 18:32 27,6 C 29,4 C 3,8 UV-I 1,1 C 45 % 34 % 31 % 1022,2 hPa 0,0 l/m 4,8 km/h (1 Bft) 0 min 10,3 km/h (2 Bft)
28.06.2010 18:34 27,6 C 29,4 C 3,8 UV-I 0,9 C 45 % 34 % 26 % 1022,2 hPa 0,0 l/m 4,4 km/h (1 Bft) 0 min 3,9 km/h (1 Bft)
28.06.2010 18:36 27,6 C 29,3 C 3,8 UV-I 0,8 C 45 % 34 % 23 % 1022,2 hPa 0,0 l/m 4,4 km/h (1 Bft) 0 min 0,0 km/h (0 Bft)
28.06.2010 18:38 27,6 C 29,3 C 3,8 UV-I 0,7 C 45 % 34 % 20 % 1022,2 hPa 0,0 l/m 3,2 km/h (1 Bft) 0 min 0,0 km/h (0 Bft)
28.06.2010 18:40 27,6 C 29,3 C 3,8 UV-I 0,5 C 45 % 34 % 14 % 1022,2 hPa 0,0 l/m 2,4 km/h (1 Bft) 0 min 0,0 km/h (0 Bft)
28.06.2010 18:42 27,6 C 29,3 C 3,6 UV-I 0,4 C 45 % 34 % 11 % 1022,2 hPa 0,0 l/m 1,6 km/h (1 Bft) 0 min 0,0 km/h (0 Bft)
28.06.2010 18:46 27,6 C 29,2 C 3,6 UV-I 0,5 C 45 % 34 % 14 % 1022,2 hPa 0,0 l/m 0,8 km/h (0 Bft) 0 min 3,2 km/h (1 Bft)
28.06.2010 18:48 27,6 C 29,2 C 3,8 UV-I 0,5 C 45 % 34 % 14 % 1022,2 hPa 0,0 l/m 1,2 km/h (1 Bft) 0 min 4,5 km/h (1 Bft)
28.06.2010 18:50 27,6 C 29,2 C 3,8 UV-I 0,5 C 45 % 34 % 14 % 1022,2 hPa 0,0 l/m 1,2 km/h (1 Bft) 0 min 4,5 km/h (1 Bft)
28.06.2010 18:52 27,5 C 29,2 C 3,9 UV-I 0,7 C 45 % 34 % 20 % 1022,0 hPa 0,0 l/m 1,6 km/h (1 Bft) 0 min 5,1 km/h (1 Bft)
28.06.2010 18:54 27,5 C 29,2 C 3,9 UV-I 0,8 C 45 % 33 % 23 % 1022,0 hPa 0,0 l/m 2,0 km/h (1 Bft) 0 min 6,4 km/h (2 Bft)
28.06.2010 18:56 27,5 C 29,2 C 3,9 UV-I 0,8 C 45 % 33 % 23 % 1022,0 hPa 0,0 l/m 2,8 km/h (1 Bft) 0 min 6,4 km/h (2 Bft)
28.06.2010 18:58 27,5 C 29,2 C 3,9 UV-I 0,9 C 45 % 34 % 26 % 1022,0 hPa 0,0 l/m 2,4 km/h (1 Bft) 0 min 0,0 km/h (0 Bft)
28.06.2010 19:00 27,5 C 29,3 C 3,9 UV-I 0,8 C 45 % 33 % 23 % 1022,0 hPa 0,0 l/m 3,6 km/h (1 Bft) 0 min 3,9 km/h (1 Bft)
28.06.2010 19:02 27,5 C 29,3 C 3,9 UV-I 0,8 C 45 % 33 % 23 % 1022,0 hPa 0,0 l/m 4,4 km/h (1 Bft) 0 min 4,5 km/h (1 Bft)
28.06.2010 19:04 27,4 C 29,3 C 3,9 UV-I 0,8 C 45 % 33 % 23 % 1022,0 hPa 0,0 l/m 4,8 km/h (1 Bft) 0 min 5,5 km/h (1 Bft)
28.06.2010 19:06 27,4 C 29,3 C 3,9 UV-I 0,8 C 45 % 34 % 23 % 1022,0 hPa 0,0 l/m 4,0 km/h (1 Bft) 0 min 3,2 km/h (1 Bft)
28.06.2010 19:08 27,4 C 29,2 C 3,8 UV-I 0,9 C 45 % 33 % 26 % 1022,0 hPa 0,0 l/m 4,0 km/h (1 Bft) 0 min 3,9 km/h (1 Bft)
28.06.2010 19:10 27,4 C 29,2 C 3,8 UV-I 0,9 C 45 % 33 % 26 % 1022,0 hPa 0,0 l/m 4,0 km/h (1 Bft) 0 min 3,9 km/h (1 Bft)
28.06.2010 19:12 27,4 C 29,3 C 3,7 UV-I 0,8 C 45 % 34 % 23 % 1021,8 hPa 0,0 l/m 2,8 km/h (1 Bft) 0 min 0,0 km/h (0 Bft)
28.06.2010 19:14 27,4 C 29,3 C 3,7 UV-I 0,8 C 45 % 34 % 23 % 1021,8 hPa 0,0 l/m 2,0 km/h (1 Bft) 0 min 0,0 km/h (0 Bft)
28.06.2010 19:16 27,4 C 29,3 C 3,7 UV-I 0,8 C 45 % 34 % 23 % 1021,8 hPa 0,0 l/m 1,2 km/h (1 Bft) 0 min 0,0 km/h (0 Bft)
28.06.2010 19:18 27,2 C 29,3 C 3,5 UV-I 0,8 C 45 % 34 % 23 % 1021,8 hPa 0,0 l/m 1,2 km/h (1 Bft) 0 min 4,5 km/h (1 Bft)
28.06.2010 19:20 27,4 C 29,3 C 3,5 UV-I 0,7 C 45 % 34 % 20 % 1021,8 hPa 0,0 l/m 1,2 km/h (1 Bft) 0 min 3,5 km/h (1 Bft)
28.06.2010 19:22 27,2 C 29,3 C 3,3 UV-I 0,7 C 45 % 34 % 20 % 1021,8 hPa 0,0 l/m 1,2 km/h (1 Bft) 0 min 3,9 km/h (1 Bft)
28.06.2010 19:24 27,2 C 29,3 C 3,3 UV-I 0,7 C 45 % 34 % 20 % 1021,8 hPa 0,0 l/m 1,2 km/h (1 Bft) 0 min 0,0 km/h (0 Bft)
28.06.2010 19:26 27,2 C 29,3 C 3,3 UV-I 0,6 C 45 % 34 % 17 % 1021,8 hPa 0,0 l/m 1,2 km/h (1 Bft) 0 min 0,0 km/h (0 Bft)
28.06.2010 19:28 27,3 C 29,3 C 3,2 UV-I 0,5 C 45 % 34 % 14 % 1021,8 hPa 0,0 l/m 1,2 km/h (1 Bft) 0 min 0,0 km/h (0 Bft)
28.06.2010 19:30 27,3 C 29,3 C 3,2 UV-I 0,5 C 45 % 34 % 14 % 1021,8 hPa 0,0 l/m 1,2 km/h (1 Bft) 0 min 0,0 km/h (0 Bft)
28.06.2010 19:32 27,3 C 29,5 C 3,0 UV-I 0,2 C 45 % 34 % 6 % 1021,5 hPa 0,0 l/m 0,4 km/h (0 Bft) 0 min 0,0 km/h (0 Bft)
28.06.2010 19:34 27,3 C 29,3 C 3,0 UV-I 0,3 C 45 % 34 % 9 % 1021,5 hPa 0,0 l/m 0,4 km/h (0 Bft) 0 min 0,0 km/h (0 Bft)
28.06.2010 19:36 27,2 C 29,2 C 3,0 UV-I 0,3 C 45 % 33 % 9 % 1021,5 hPa 0,0 l/m 0,8 km/h (0 Bft) 0 min 3,2 km/h (1 Bft)
28.06.2010 19:38 27,2 C 29,3 C 2,9 UV-I 0,1 C 45 % 34 % 3 % 1021,5 hPa 0,0 l/m 0,8 km/h (0 Bft) 0 min 0,0 km/h (0 Bft)
28.06.2010 19:40 27,2 C 29,3 C 2,9 UV-I 0,0 C 45 % 34 % 0 % 1021,5 hPa 0,0 l/m 0,8 km/h (0 Bft) 0 min 0,0 km/h (0 Bft)
28.06.2010 19:42 27,2 C 29,2 C 2,6 UV-I 0,1 C 45 % 34 % 3 % 1021,5 hPa 0,0 l/m 1,2 km/h (1 Bft) 0 min 5,8 km/h (2 Bft)
28.06.2010 19:44 27,2 C 29,2 C 2,6 UV-I 0,0 C 45 % 34 % 0 % 1021,5 hPa 0,0 l/m 2,4 km/h (1 Bft) 0 min 4,8 km/h (1 Bft)
28.06.2010 19:46 27,2 C 29,1 C 2,6 UV-I 0,0 C 46 % 34 % 0 % 1021,5 hPa 0,0 l/m 2,0 km/h (1 Bft) 0 min 3,2 km/h (1 Bft)
28.06.2010 19:48 27,2 C 29,0 C 2,4 UV-I 0,0 C 46 % 34 % 0 % 1021,5 hPa 0,0 l/m 2,8 km/h (1 Bft) 0 min 3,9 km/h (1 Bft)
28.06.2010 19:50 27,2 C 29,0 C 2,4 UV-I 0,0 C 46 % 34 % 0 % 1021,5 hPa 0,0 l/m 2,8 km/h (1 Bft) 0 min 3,9 km/h (1 Bft)
28.06.2010 19:52 27,2 C 29,1 C 2,2 UV-I 0,0 C 46 % 35 % 0 % 1021,4 hPa 0,0 l/m 3,2 km/h (1 Bft) 0 min 4,2 km/h (1 Bft)
28.06.2010 19:54 27,1 C 29,0 C 2,2 UV-I 0,0 C 46 % 35 % 0 % 1021,4 hPa 0,0 l/m 2,4 km/h (1 Bft) 0 min 0,0 km/h (0 Bft)
28.06.2010 19:56 27,1 C 29,0 C 2,2 UV-I 0,0 C 46 % 36 % 0 % 1021,4 hPa 0,0 l/m 2,0 km/h (1 Bft) 0 min 0,0 km/h (0 Bft)
28.06.2010 19:58 27,1 C 29,1 C 2,2 UV-I 0,0 C 46 % 35 % 0 % 1021,4 hPa 0,0 l/m 1,2 km/h (1 Bft) 0 min 0,0 km/h (0 Bft)
28.06.2010 20:00 27,1 C 29,0 C 2,2 UV-I 0,0 C 46 % 36 % 0 % 1021,4 hPa 0,0 l/m 0,8 km/h (0 Bft) 0 min 0,0 km/h (0 Bft)
28.06.2010 20:02 27,1 C 29,0 C 2,1 UV-I 0,0 C 46 % 35 % 0 % 1021,4 hPa 0,0 l/m 1,6 km/h (1 Bft) 0 min 6,4 km/h (2 Bft)
28.06.2010 20:04 27,1 C 29,0 C 2,1 UV-I 0,0 C 46 % 36 % 0 % 1021,4 hPa 0,0 l/m 1,6 km/h (1 Bft) 0 min 0,0 km/h (0 Bft)
28.06.2010 20:06 27,1 C 28,9 C 2,1 UV-I 0,0 C 46 % 36 % 0 % 1021,4 hPa 0,0 l/m 2,0 km/h (1 Bft) 0 min 7,1 km/h (2 Bft)
28.06.2010 20:08 27,0 C 28,9 C 2,0 UV-I 0,0 C 46 % 36 % 0 % 1021,4 hPa 0,0 l/m 2,4 km/h (1 Bft) 0 min 0,0 km/h (0 Bft)
28.06.2010 20:10 27,0 C 28,9 C 2,0 UV-I 0,0 C 46 % 36 % 0 % 1021,4 hPa 0,0 l/m 2,4 km/h (1 Bft) 0 min 0,0 km/h (0 Bft)
28.06.2010 20:12 27,0 C 28,8 C 1,8 UV-I 0,0 C 46 % 36 % 0 % 1021,2 hPa 0,0 l/m 2,4 km/h (1 Bft) 0 min 4,2 km/h (1 Bft)
28.06.2010 20:14 27,0 C 28,9 C 1,8 UV-I 0,0 C 46 % 37 % 0 % 1021,2 hPa 0,0 l/m 2,0 km/h (1 Bft) 0 min 0,0 km/h (0 Bft)
28.06.2010 20:16 27,0 C 28,8 C 1,8 UV-I 0,0 C 46 % 37 % 0 % 1021,2 hPa 0,0 l/m 2,0 km/h (1 Bft) 0 min 0,0 km/h (0 Bft)
28.06.2010 20:18 27,0 C 28,7 C 1,7 UV-I 0,0 C 46 % 37 % 0 % 1021,2 hPa 0,0 l/m 1,2 km/h (1 Bft) 0 min 3,9 km/h (1 Bft)
28.06.2010 20:20 27,0 C 28,7 C 1,7 UV-I 0,0 C 46 % 37 % 0 % 1021,2 hPa 0,0 l/m 1,2 km/h (1 Bft) 0 min 0,0 km/h (0 Bft)
28.06.2010 20:22 27,0 C 28,7 C 1,6 UV-I 0,0 C 46 % 37 % 0 % 1021,2 hPa 0,0 l/m 1,2 km/h (1 Bft) 0 min 0,0 km/h (0 Bft)
28.06.2010 20:24 27,0 C 28,6 C 1,6 UV-I 0,0 C 46 % 38 % 0 % 1021,2 hPa 0,0 l/m 0,8 km/h (0 Bft) 0 min 0,0 km/h (0 Bft)
28.06.2010 20:28 27,0 C 28,6 C 1,4 UV-I 0,0 C 46 % 38 % 0 % 1021,2 hPa 0,0 l/m 1,2 km/h (1 Bft) 0 min 0,0 km/h (0 Bft)
28.06.2010 20:33 27,0 C 28,4 C 1,4 UV-I 0,0 C 46 % 38 % 0 % 1021,4 hPa 0,0 l/m 1,6 km/h (1 Bft) 0 min 0,0 km/h (0 Bft)
28.06.2010 20:34 27,0 C 28,4 C 1,4 UV-I 0,0 C 46 % 38 % 0 % 1021,4 hPa 0,0 l/m 1,6 km/h (1 Bft) 0 min 0,0 km/h (0 Bft)
28.06.2010 20:38 26,9 C 28,3 C 1,3 UV-I 0,0 C 46 % 39 % 0 % 1021,4 hPa 0,0 l/m 1,2 km/h (1 Bft) 0 min 0,0 km/h (0 Bft)
28.06.2010 20:43 26,9 C 28,3 C 1,2 UV-I 0,0 C 46 % 40 % 0 % 1021,4 hPa 0,0 l/m 0,4 km/h (0 Bft) 0 min 0,0 km/h (0 Bft)
28.06.2010 20:49 26,9 C 28,1 C 1,1 UV-I 0,0 C 46 % 40 % 0 % 1021,4 hPa 0,0 l/m 0,0 km/h (0 Bft) 0 min 0,0 km/h (0 Bft)
28.06.2010 20:50 26,9 C 28,1 C 1,1 UV-I 0,0 C 46 % 40 % 0 % 1021,4 hPa 0,0 l/m 0,0 km/h (0 Bft) 0 min 0,0 km/h (0 Bft)
28.06.2010 20:52 26,9 C 28,0 C 1,0 UV-I 0,0 C 46 % 40 % 0 % 1021,8 hPa 0,0 l/m 0,0 km/h (0 Bft) 0 min 0,0 km/h (0 Bft)
28.06.2010 20:54 26,9 C 27,9 C 1,0 UV-I 0,0 C 46 % 41 % 0 % 1021,8 hPa 0,0 l/m 0,0 km/h (0 Bft) 0 min 0,0 km/h (0 Bft)
28.06.2010 20:56 26,8 C 27,9 C 1,0 UV-I 0,0 C 47 % 41 % 0 % 1021,8 hPa 0,0 l/m 0,0 km/h (0 Bft) 0 min 0,0 km/h (0 Bft)
28.06.2010 20:58 26,8 C 27,9 C 0,9 UV-I 0,0 C 47 % 41 % 0 % 1021,8 hPa 0,0 l/m 0,0 km/h (0 Bft) 0 min 0,0 km/h (0 Bft)
28.06.2010 21:00 26,8 C 27,7 C 0,9 UV-I 0,0 C 47 % 41 % 0 % 1021,8 hPa 0,0 l/m 0,0 km/h (0 Bft) 0 min 4,8 km/h (1 Bft)
28.06.2010 21:02 26,8 C 27,6 C 0,8 UV-I 0,0 C 47 % 40 % 0 % 1021,8 hPa 0,0 l/m 0,4 km/h (0 Bft) 0 min 0,0 km/h (0 Bft)
28.06.2010 21:04 26,8 C 27,6 C 0,8 UV-I 0,0 C 47 % 40 % 0 % 1021,8 hPa 0,0 l/m 1,2 km/h (1 Bft) 0 min 4,5 km/h (1 Bft)
28.06.2010 21:06 26,8 C 27,6 C 0,8 UV-I 0,0 C 47 % 40 % 0 % 1021,8 hPa 0,0 l/m 2,0 km/h (1 Bft) 0 min 6,1 km/h (2 Bft)
28.06.2010 21:08 26,8 C 27,6 C 0,7 UV-I 0,0 C 47 % 40 % 0 % 1021,8 hPa 0,0 l/m 2,4 km/h (1 Bft) 0 min 0,0 km/h (0 Bft)
28.06.2010 21:10 26,8 C 27,6 C 0,7 UV-I 0,0 C 47 % 40 % 0 % 1021,8 hPa 0,0 l/m 2,4 km/h (1 Bft) 0 min 0,0 km/h (0 Bft)
28.06.2010 21:12 26,8 C 27,5 C 0,7 UV-I 0,0 C 47 % 41 % 0 % 1021,6 hPa 0,0 l/m 2,0 km/h (1 Bft) 0 min 0,0 km/h (0 Bft)
28.06.2010 21:14 26,8 C 27,3 C 0,7 UV-I 0,0 C 47 % 41 % 0 % 1021,6 hPa 0,0 l/m 2,0 km/h (1 Bft) 0 min 0,0 km/h (0 Bft)
28.06.2010 21:16 26,8 C 27,4 C 0,7 UV-I 0,0 C 47 % 41 % 0 % 1021,6 hPa 0,0 l/m 0,8 km/h (0 Bft) 0 min 0,0 km/h (0 Bft)
28.06.2010 21:18 26,8 C 27,2 C 0,6 UV-I 0,0 C 47 % 41 % 0 % 1021,6 hPa 0,0 l/m 0,4 km/h (0 Bft) 0 min 0,0 km/h (0 Bft)
28.06.2010 21:20 26,8 C 27,3 C 0,6 UV-I 0,0 C 47 % 41 % 0 % 1021,6 hPa 0,0 l/m 0,8 km/h (0 Bft) 0 min 8,0 km/h (2 Bft)
28.06.2010 21:22 26,7 C 27,1 C 0,5 UV-I 0,0 C 47 % 41 % 0 % 1021,6 hPa 0,0 l/m 1,2 km/h (1 Bft) 0 min 0,0 km/h (0 Bft)
28.06.2010 21:24 26,7 C 27,1 C 0,5 UV-I 0,0 C 47 % 41 % 0 % 1021,6 hPa 0,0 l/m 1,2 km/h (1 Bft) 0 min 0,0 km/h (0 Bft)
28.06.2010 21:26 26,7 C 27,1 C 0,5 UV-I 0,0 C 47 % 42 % 0 % 1021,6 hPa 0,0 l/m 1,2 km/h (1 Bft) 0 min 0,0 km/h (0 Bft)
28.06.2010 21:28 26,7 C 26,9 C 0,4 UV-I 0,0 C 47 % 42 % 0 % 1021,6 hPa 0,0 l/m 1,2 km/h (1 Bft) 0 min 0,0 km/h (0 Bft)
28.06.2010 21:30 26,7 C 26,9 C 0,4 UV-I 0,0 C 47 % 42 % 0 % 1021,6 hPa 0,0 l/m 1,2 km/h (1 Bft) 0 min 0,0 km/h (0 Bft)
28.06.2010 21:32 26,7 C 26,8 C 0,4 UV-I 0,0 C 47 % 42 % 0 % 1021,7 hPa 0,0 l/m 1,6 km/h (1 Bft) 0 min 10,3 km/h (2 Bft)
28.06.2010 21:34 26,7 C 26,6 C 0,4 UV-I 0,0 C 47 % 43 % 0 % 1021,7 hPa 0,0 l/m 2,4 km/h (1 Bft) 0 min 9,0 km/h (2 Bft)
28.06.2010 21:36 26,7 C 26,7 C 0,4 UV-I 0,0 C 47 % 43 % 0 % 1021,7 hPa 0,0 l/m 4,0 km/h (1 Bft) 0 min 20,6 km/h (4 Bft)
28.06.2010 21:38 26,6 C 26,5 C 0,4 UV-I 0,0 C 47 % 44 % 0 % 1021,7 hPa 0,0 l/m 5,2 km/h (1 Bft) 0 min 0,0 km/h (0 Bft)
28.06.2010 21:40 26,6 C 26,4 C 0,4 UV-I 0,0 C 47 % 44 % 0 % 1021,7 hPa 0,0 l/m 6,4 km/h (2 Bft) 0 min 6,8 km/h (2 Bft)
28.06.2010 21:42 26,6 C 26,4 C 0,3 UV-I 0,0 C 47 % 45 % 0 % 1021,7 hPa 0,0 l/m 7,2 km/h (2 Bft) 0 min 6,8 km/h (2 Bft)
28.06.2010 21:44 26,6 C 26,3 C 0,3 UV-I 0,0 C 47 % 46 % 0 % 1021,7 hPa 0,0 l/m 8,0 km/h (2 Bft) 0 min 11,9 km/h (2 Bft)
28.06.2010 21:46 26,6 C 26,3 C 0,3 UV-I 0,0 C 47 % 46 % 0 % 1021,7 hPa 0,0 l/m 8,0 km/h (2 Bft) 0 min 15,1 km/h (3 Bft)
28.06.2010 21:48 26,6 C 26,1 C 0,3 UV-I 0,0 C 47 % 46 % 0 % 1021,7 hPa 0,0 l/m 6,8 km/h (2 Bft) 0 min 0,0 km/h (0 Bft)
28.06.2010 21:50 26,6 C 26,1 C 0,3 UV-I 0,0 C 47 % 46 % 0 % 1021,7 hPa 0,0 l/m 6,8 km/h (2 Bft) 0 min 0,0 km/h (0 Bft)
28.06.2010 21:52 26,6 C 26,0 C 0,2 UV-I 0,0 C 47 % 47 % 0 % 1021,8 hPa 0,0 l/m 6,0 km/h (2 Bft) 0 min 4,2 km/h (1 Bft)
28.06.2010 21:54 26,5 C 26,0 C 0,2 UV-I 0,0 C 47 % 47 % 0 % 1021,8 hPa 0,0 l/m 5,2 km/h (1 Bft) 0 min 5,1 km/h (1 Bft)
28.06.2010 21:56 26,5 C 25,8 C 0,2 UV-I 0,0 C 47 % 47 % 0 % 1021,8 hPa 0,0 l/m 4,4 km/h (1 Bft) 0 min 7,4 km/h (2 Bft)
28.06.2010 21:58 26,5 C 25,7 C 0,2 UV-I 0,0 C 47 % 48 % 0 % 1021,8 hPa 0,0 l/m 3,6 km/h (1 Bft) 0 min 4,8 km/h (1 Bft)
28.06.2010 22:00 26,5 C 25,6 C 0,2 UV-I 0,0 C 47 % 48 % 0 % 1021,8 hPa 0,0 l/m 4,4 km/h (1 Bft) 0 min 8,4 km/h (2 Bft)
28.06.2010 22:02 26,5 C 25,6 C 0,2 UV-I 0,0 C 47 % 48 % 0 % 1021,8 hPa 0,0 l/m 4,4 km/h (1 Bft) 0 min 4,5 km/h (1 Bft)
28.06.2010 22:04 26,5 C 25,6 C 0,2 UV-I 0,0 C 47 % 48 % 0 % 1021,8 hPa 0,0 l/m 4,4 km/h (1 Bft) 0 min 6,8 km/h (2 Bft)
28.06.2010 22:06 26,5 C 25,5 C 0,0 UV-I 0,0 C 47 % 49 % 0 % 1021,8 hPa 0,0 l/m 5,2 km/h (1 Bft) 0 min 3,9 km/h (1 Bft)
28.06.2010 22:08 26,4 C 25,5 C 0,1 UV-I 0,0 C 47 % 49 % 0 % 1021,8 hPa 0,0 l/m 4,4 km/h (1 Bft) 0 min 0,0 km/h (0 Bft)
28.06.2010 22:10 26,4 C 25,5 C 0,1 UV-I 0,0 C 47 % 49 % 0 % 1021,8 hPa 0,0 l/m 4,4 km/h (1 Bft) 0 min 0,0 km/h (0 Bft)
28.06.2010 22:12 26,4 C 25,4 C 0,1 UV-I 0,0 C 47 % 49 % 0 % 1022,2 hPa 0,0 l/m 4,4 km/h (1 Bft) 0 min 4,8 km/h (1 Bft)
28.06.2010 22:14 26,4 C 25,3 C 0,1 UV-I 0,0 C 47 % 49 % 0 % 1022,2 hPa 0,0 l/m 4,4 km/h (1 Bft) 0 min 3,9 km/h (1 Bft)
28.06.2010 22:16 26,4 C 25,3 C 0,1 UV-I 0,0 C 47 % 50 % 0 % 1022,2 hPa 0,0 l/m 4,0 km/h (1 Bft) 0 min 0,0 km/h (0 Bft)
28.06.2010 22:18 26,4 C 25,2 C 0,1 UV-I 0,0 C 47 % 50 % 0 % 1022,2 hPa 0,0 l/m 4,0 km/h (1 Bft) 0 min 0,0 km/h (0 Bft)
28.06.2010 22:20 26,4 C 25,1 C 0,1 UV-I 0,0 C 47 % 50 % 0 % 1022,2 hPa 0,0 l/m 3,6 km/h (1 Bft) 0 min 0,0 km/h (0 Bft)
28.06.2010 22:22 26,4 C 25,1 C 0,1 UV-I 0,0 C 47 % 50 % 0 % 1022,2 hPa 0,0 l/m 2,8 km/h (1 Bft) 0 min 4,5 km/h (1 Bft)
28.06.2010 22:24 26,4 C 24,9 C 0,1 UV-I 0,0 C 48 % 51 % 0 % 1022,2 hPa 0,0 l/m 2,8 km/h (1 Bft) 0 min 7,1 km/h (2 Bft)
28.06.2010 22:26 26,2 C 24,8 C 0,1 UV-I 0,0 C 48 % 51 % 0 % 1022,2 hPa 0,0 l/m 2,4 km/h (1 Bft) 0 min 5,8 km/h (2 Bft)
28.06.2010 22:28 26,3 C 24,9 C 0,1 UV-I 0,0 C 48 % 51 % 0 % 1022,2 hPa 0,0 l/m 2,4 km/h (1 Bft) 0 min 5,8 km/h (2 Bft)
28.06.2010 22:30 26,3 C 24,9 C 0,1 UV-I 0,0 C 48 % 51 % 0 % 1022,2 hPa 0,0 l/m 2,4 km/h (1 Bft) 0 min 5,8 km/h (2 Bft)
28.06.2010 22:32 26,3 C 24,7 C 0,1 UV-I 0,0 C 48 % 51 % 0 % 1022,1 hPa 0,0 l/m 3,6 km/h (1 Bft) 0 min 4,5 km/h (1 Bft)
28.06.2010 22:34 26,2 C 24,7 C 0,1 UV-I 0,0 C 48 % 52 % 0 % 1022,1 hPa 0,0 l/m 3,6 km/h (1 Bft) 0 min 0,0 km/h (0 Bft)
28.06.2010 22:36 26,2 C 24,5 C 0,1 UV-I 0,0 C 48 % 52 % 0 % 1022,1 hPa 0,0 l/m 4,0 km/h (1 Bft) 0 min 0,0 km/h (0 Bft)
28.06.2010 22:38 26,2 C 24,4 C 0,1 UV-I 0,0 C 48 % 52 % 0 % 1022,1 hPa 0,0 l/m 5,2 km/h (1 Bft) 0 min 20,0 km/h (4 Bft)
28.06.2010 22:40 26,2 C 24,4 C 0,1 UV-I 0,0 C 48 % 52 % 0 % 1022,1 hPa 0,0 l/m 5,2 km/h (1 Bft) 0 min 4,8 km/h (1 Bft)
28.06.2010 22:42 26,2 C 24,5 C 0,1 UV-I 0,0 C 48 % 52 % 0 % 1022,1 hPa 0,0 l/m 4,8 km/h (1 Bft) 0 min 7,1 km/h (2 Bft)
28.06.2010 22:44 26,2 C 24,4 C 0,1 UV-I 0,0 C 48 % 52 % 0 % 1022,1 hPa 0,0 l/m 4,8 km/h (1 Bft) 0 min 3,2 km/h (1 Bft)
28.06.2010 22:46 26,2 C 24,3 C 0,1 UV-I 0,0 C 48 % 52 % 0 % 1022,1 hPa 0,0 l/m 4,8 km/h (1 Bft) 0 min 3,9 km/h (1 Bft)
28.06.2010 22:48 26,2 C 24,2 C 0,1 UV-I 0,0 C 48 % 52 % 0 % 1022,1 hPa 0,0 l/m 4,8 km/h (1 Bft) 0 min 3,2 km/h (1 Bft)
28.06.2010 22:50 26,2 C 24,2 C 0,1 UV-I 0,0 C 48 % 52 % 0 % 1022,1 hPa 0,0 l/m 4,8 km/h (1 Bft) 0 min 3,2 km/h (1 Bft)
28.06.2010 22:52 26,1 C 24,1 C 0,1 UV-I 0,0 C 48 % 52 % 0 % 1022,1 hPa 0,0 l/m 2,0 km/h (1 Bft) 0 min 0,0 km/h (0 Bft)
28.06.2010 22:54 26,1 C 24,1 C 0,1 UV-I 0,0 C 48 % 53 % 0 % 1022,1 hPa 0,0 l/m 1,2 km/h (1 Bft) 0 min 0,0 km/h (0 Bft)
28.06.2010 22:56 26,1 C 24,1 C 0,1 UV-I 0,0 C 48 % 53 % 0 % 1022,1 hPa 0,0 l/m 0,4 km/h (0 Bft) 0 min 3,2 km/h (1 Bft)
28.06.2010 22:58 26,0 C 23,9 C 0,1 UV-I 0,0 C 48 % 53 % 0 % 1022,1 hPa 0,0 l/m 0,4 km/h (0 Bft) 0 min 3,2 km/h (1 Bft)
28.06.2010 23:00 26,0 C 23,8 C 0,1 UV-I 0,0 C 48 % 53 % 0 % 1022,1 hPa 0,0 l/m 0,4 km/h (0 Bft) 0 min 0,0 km/h (0 Bft)
28.06.2010 23:02 26,0 C 23,9 C 0,1 UV-I 0,0 C 48 % 53 % 0 % 1022,1 hPa 0,0 l/m 0,4 km/h (0 Bft) 0 min 0,0 km/h (0 Bft)
28.06.2010 23:04 26,0 C 23,7 C 0,1 UV-I 0,0 C 49 % 53 % 0 % 1022,1 hPa 0,0 l/m 0,4 km/h (0 Bft) 0 min 0,0 km/h (0 Bft)
28.06.2010 23:06 26,0 C 23,6 C 0,1 UV-I 0,0 C 49 % 53 % 0 % 1022,1 hPa 0,0 l/m 0,4 km/h (0 Bft) 0 min 0,0 km/h (0 Bft)
28.06.2010 23:08 26,0 C 23,6 C 0,1 UV-I 0,0 C 49 % 53 % 0 % 1022,1 hPa 0,0 l/m 0,4 km/h (0 Bft) 0 min 0,0 km/h (0 Bft)
28.06.2010 23:10 26,0 C 23,6 C 0,1 UV-I 0,0 C 49 % 53 % 0 % 1022,1 hPa 0,0 l/m 0,4 km/h (0 Bft) 0 min 0,0 km/h (0 Bft)
28.06.2010 23:12 26,0 C 23,4 C 0,1 UV-I 0,0 C 49 % 54 % 0 % 1022,2 hPa 0,0 l/m 0,4 km/h (0 Bft) 0 min 0,0 km/h (0 Bft)
28.06.2010 23:14 26,0 C 23,5 C 0,1 UV-I 0,0 C 49 % 54 % 0 % 1022,2 hPa 0,0 l/m 0,4 km/h (0 Bft) 0 min 0,0 km/h (0 Bft)
28.06.2010 23:16 25,9 C 23,3 C 0,1 UV-I 0,0 C 49 % 54 % 0 % 1022,2 hPa 0,0 l/m 0,4 km/h (0 Bft) 0 min 0,0 km/h (0 Bft)
28.06.2010 23:18 25,9 C 23,2 C 0,1 UV-I 0,0 C 49 % 55 % 0 % 1022,2 hPa 0,0 l/m 0,0 km/h (0 Bft) 0 min 0,0 km/h (0 Bft)
28.06.2010 23:20 25,9 C 23,2 C 0,1 UV-I 0,0 C 49 % 55 % 0 % 1022,2 hPa 0,0 l/m 0,0 km/h (0 Bft) 0 min 0,0 km/h (0 Bft)
28.06.2010 23:22 25,9 C 23,1 C 0,1 UV-I 0,0 C 49 % 55 % 0 % 1022,2 hPa 0,0 l/m 0,0 km/h (0 Bft) 0 min 0,0 km/h (0 Bft)
28.06.2010 23:24 25,9 C 23,1 C 0,1 UV-I 0,0 C 49 % 56 % 0 % 1022,2 hPa 0,0 l/m 0,0 km/h (0 Bft) 0 min 0,0 km/h (0 Bft)
28.06.2010 23:26 25,9 C 22,9 C 0,1 UV-I 0,0 C 49 % 56 % 0 % 1022,2 hPa 0,0 l/m 0,0 km/h (0 Bft) 0 min 0,0 km/h (0 Bft)
28.06.2010 23:28 25,9 C 22,9 C 0,1 UV-I 0,0 C 49 % 56 % 0 % 1022,2 hPa 0,0 l/m 0,0 km/h (0 Bft) 0 min 0,0 km/h (0 Bft)
28.06.2010 23:30 25,9 C 22,9 C 0,1 UV-I 0,0 C 49 % 56 % 0 % 1022,2 hPa 0,0 l/m 0,0 km/h (0 Bft) 0 min 0,0 km/h (0 Bft)
28.06.2010 23:32 25,8 C 22,8 C 0,1 UV-I 0,0 C 49 % 56 % 0 % 1022,2 hPa 0,0 l/m 0,0 km/h (0 Bft) 0 min 0,0 km/h (0 Bft)
28.06.2010 23:34 25,8 C 22,7 C 0,1 UV-I 0,0 C 49 % 57 % 0 % 1022,2 hPa 0,0 l/m 0,0 km/h (0 Bft) 0 min 0,0 km/h (0 Bft)
28.06.2010 23:36 25,8 C 22,7 C 0,1 UV-I 0,0 C 49 % 57 % 0 % 1022,2 hPa 0,0 l/m 0,0 km/h (0 Bft) 0 min 0,0 km/h (0 Bft)
28.06.2010 23:38 25,8 C 22,5 C 0,1 UV-I 0,0 C 49 % 57 % 0 % 1022,2 hPa 0,0 l/m 0,0 km/h (0 Bft) 0 min 0,0 km/h (0 Bft)
28.06.2010 23:40 25,8 C 22,4 C 0,1 UV-I 0,0 C 49 % 57 % 0 % 1022,2 hPa 0,0 l/m 0,0 km/h (0 Bft) 0 min 0,0 km/h (0 Bft)
28.06.2010 23:42 25,8 C 22,5 C 0,1 UV-I 0,0 C 49 % 57 % 0 % 1022,2 hPa 0,0 l/m 0,0 km/h (0 Bft) 0 min 0,0 km/h (0 Bft)
28.06.2010 23:44 25,8 C 22,3 C 0,1 UV-I 0,0 C 49 % 58 % 0 % 1022,2 hPa 0,0 l/m 0,0 km/h (0 Bft) 0 min 0,0 km/h (0 Bft)
28.06.2010 23:46 25,8 C 22,3 C 0,1 UV-I 0,0 C 49 % 58 % 0 % 1022,2 hPa 0,0 l/m 0,0 km/h (0 Bft) 0 min 0,0 km/h (0 Bft)
28.06.2010 23:48 25,8 C 22,3 C 0,1 UV-I 0,0 C 49 % 58 % 0 % 1022,2 hPa 0,0 l/m 0,0 km/h (0 Bft) 0 min 0,0 km/h (0 Bft)
28.06.2010 23:50 25,8 C 22,3 C 0,1 UV-I 0,0 C 49 % 58 % 0 % 1022,2 hPa 0,0 l/m 0,0 km/h (0 Bft) 0 min 0,0 km/h (0 Bft)
28.06.2010 23:52 25,7 C 22,0 C 0,1 UV-I 0,0 C 49 % 59 % 0 % 1022,3 hPa 0,0 l/m 0,0 km/h (0 Bft) 0 min 0,0 km/h (0 Bft)
28.06.2010 23:54 25,7 C 22,1 C 0,1 UV-I 0,0 C 50 % 59 % 0 % 1022,3 hPa 0,0 l/m 0,0 km/h (0 Bft) 0 min 0,0 km/h (0 Bft)
28.06.2010 23:56 25,7 C 21,9 C 0,1 UV-I 0,0 C 50 % 59 % 0 % 1022,3 hPa 0,0 l/m 0,0 km/h (0 Bft) 0 min 0,0 km/h (0 Bft)
28.06.2010 23:58 25,7 C 21,9 C 0,1 UV-I 0,0 C 50 % 59 % 0 % 1022,3 hPa 0,0 l/m 0,0 km/h (0 Bft) 0 min 0,0 km/h (0 Bft)
_ Min-Zeit 06:06 05:56 22:06 00:00 15:52 13:54 00:00 04:13 - 00:00 - 00:00
Minimum _ 24,1 C 15,3 C 0,0 UV-I 0,0 C 44 % 31 % 0 % 1020,5 hPa - 0,0 km/h (0 Bft) - 0,0 km/h (0 Bft)
_ Max-Zeit 15:46 15:48 10:18 09:14 06:52 06:22 08:16 15:52 00:00 14:26 08:14 14:30
Maximum _ 28,0 C 31,5 C 15,1 UV-I 7,6 C 55 % 88 % 100 % 1023,8 hPa 0,0 l/m 11,2 km/h
W (2 Bft)
2 min 27,4 km/h
SO (4 Bft)
Durchschnitt _ 25,6 C 24,1 C 4,6 UV-I 2,2 C 50 % 56 % 42 % 1021,8 hPa #0,0 l/m 2,7 km/h (1 Bft) #8:22 h 3,3 km/h (1 Bft)
© 2012 W. Hausmann